| time (UTC) | temp F | wind direction | speed MPH | gust MPH | rain 1hr in | rain 24hr in | rain mn in | humidity % | barometer mb |
| 20260510102305 | 60 | 131 | 4.0 | 8.0 | 0.00 | 0.56 | 0.00 | 78 | 1008.5 |
| 20260510102203 | 60 | 127 | 4.0 | 8.0 | 0.00 | 0.56 | 0.00 | 77 | 1008.6 |
| 20260510102103 | 60 | 127 | 3.0 | 7.0 | 0.00 | 0.56 | 0.00 | 77 | 1008.4 |
| 20260510102003 | 60 | 130 | 3.0 | 7.0 | 0.00 | 0.56 | 0.00 | 75 | 1008.6 |
| 20260510101903 | 60 | 128 | 3.0 | 6.0 | 0.00 | 0.56 | 0.00 | 76 | 1008.7 |
| 20260510101803 | 60 | 124 | 3.0 | 6.0 | 0.00 | 0.56 | 0.00 | 75 | 1008.7 |
| 20260510101703 | 61 | 122 | 2.0 | 6.0 | 0.00 | 0.56 | 0.00 | 76 | 1008.6 |
| 20260510101624 | 61 | 122 | 2.0 | 6.0 | 0.00 | 0.56 | 0.00 | 76 | 1008.6 |
| 20260510101524 | 61 | 131 | 2.0 | 6.0 | 0.00 | 0.56 | 0.00 | 76 | 1008.5 |
| 20260510101403 | 61 | 130 | 2.0 | 6.0 | 0.00 | 0.56 | 0.00 | 75 | 1008.6 |
| 20260510101324 | 61 | 132 | 2.0 | 6.0 | 0.00 | 0.56 | 0.00 | 74 | 1008.5 |
| 20260510101203 | 61 | 130 | 3.0 | 6.0 | 0.00 | 0.56 | 0.00 | 75 | 1008.5 |
| 20260510101103 | 61 | 129 | 3.0 | 6.0 | 0.00 | 0.56 | 0.00 | 75 | 1008.6 |
| 20260510101003 | 61 | 128 | 3.0 | 6.0 | 0.00 | 0.56 | 0.00 | 75 | 1008.5 |
| 20260510100903 | 61 | 128 | 2.0 | 6.0 | 0.00 | 0.56 | 0.00 | 75 | 1008.3 |
| 20260510100803 | 61 | 127 | 2.0 | 6.0 | 0.00 | 0.56 | 0.00 | 76 | 1008.5 |
| 20260510100703 | 61 | 120 | 2.0 | 6.0 | 0.00 | 0.56 | 0.00 | 74 | 1008.5 |
| 20260510100603 | 61 | 120 | 2.0 | 6.0 | 0.00 | 0.56 | 0.00 | 75 | 1008.4 |
| 20260510100503 | 61 | 103 | 2.0 | 4.0 | 0.00 | 0.56 | 0.00 | 74 | 1008.6 |
| 20260510100403 | 62 | 99 | 1.0 | 4.0 | 0.00 | 0.56 | 0.00 | 76 | 1008.7 |
| 20260510100303 | 62 | 107 | 1.0 | 4.0 | 0.00 | 0.56 | 0.00 | 77 | 1008.5 |
| 20260510100203 | 62 | 107 | 1.0 | 4.0 | 0.00 | 0.56 | 0.00 | 79 | 1008.4 |
| 20260510100004 | 61 | 107 | 1.0 | 4.0 | 0.00 | 0.56 | 0.00 | 77 | 1008.5 |
| 20260510095903 | 61 | 107 | 1.0 | 4.0 | 0.00 | 0.56 | 0.00 | 76 | 1008.5 |
| 20260510095803 | 61 | 106 | 1.0 | 4.0 | 0.00 | 0.56 | 0.00 | 78 | 1008.6 |
| 20260510095703 | 61 | 108 | 1.0 | 4.0 | 0.00 | 0.56 | 0.00 | 79 | 1008.6 |
| 20260510095603 | 61 | 115 | 2.0 | 4.0 | 0.00 | 0.56 | 0.00 | 77 | 1008.5 |
| 20260510095503 | 61 | 132 | 2.0 | 4.0 | 0.00 | 0.56 | 0.00 | 79 | 1008.7 |
| 20260510095424 | 61 | 132 | 2.0 | 4.0 | 0.00 | 0.56 | 0.00 | 79 | 1008.7 |
| 20260510095305 | 61 | 117 | 2.0 | 4.0 | 0.00 | 0.56 | 0.00 | 79 | 1008.5 |
| 20260510095203 | 61 | 117 | 2.0 | 4.0 | 0.00 | 0.56 | 0.00 | 79 | 1008.5 |
| 20260510095103 | 61 | 113 | 2.0 | 6.0 | 0.00 | 0.56 | 0.00 | 80 | 1008.5 |
| 20260510095024 | 61 | 113 | 2.0 | 6.0 | 0.00 | 0.56 | 0.00 | 80 | 1008.5 |
| 20260510094903 | 60 | 112 | 2.0 | 6.0 | 0.00 | 0.56 | 0.00 | 80 | 1008.6 |
| 20260510094824 | 60 | 112 | 3.0 | 6.0 | 0.00 | 0.56 | 0.00 | 80 | 1008.4 |
| 20260510094703 | 60 | 112 | 3.0 | 7.0 | 0.00 | 0.56 | 0.00 | 78 | 1008.5 |
| 20260510094603 | 60 | 111 | 3.0 | 7.0 | 0.00 | 0.56 | 0.00 | 78 | 1008.4 |
| 20260510094503 | 59 | 109 | 3.0 | 7.0 | 0.00 | 0.56 | 0.00 | 78 | 1008.5 |
| 20260510094424 | 59 | 102 | 3.0 | 7.0 | 0.00 | 0.56 | 0.00 | 79 | 1008.5 |
| 20260510094303 | 59 | 99 | 3.0 | 7.0 | 0.00 | 0.56 | 0.00 | 79 | 1008.4 |
| 20260510094203 | 59 | 101 | 3.0 | 7.0 | 0.00 | 0.56 | 0.00 | 80 | 1008.3 |
| 20260510094103 | 59 | 101 | 3.0 | 7.0 | 0.00 | 0.56 | 0.00 | 80 | 1008.4 |
| 20260510094024 | 59 | 101 | 3.0 | 7.0 | 0.00 | 0.56 | 0.00 | 80 | 1008.3 |
| 20260510093903 | 59 | 103 | 3.0 | 7.0 | 0.00 | 0.56 | 0.00 | 81 | 1008.4 |
| 20260510093803 | 59 | 103 | 3.0 | 7.0 | 0.00 | 0.56 | 0.00 | 81 | 1008.4 |
| 20260510093703 | 59 | 107 | 3.0 | 7.0 | 0.00 | 0.56 | 0.00 | 81 | 1008.3 |
| 20260510093603 | 59 | 106 | 3.0 | 7.0 | 0.00 | 0.56 | 0.00 | 80 | 1008.3 |
| 20260510093503 | 59 | 105 | 3.0 | 7.0 | 0.00 | 0.56 | 0.00 | 80 | 1008.4 |
| 20260510093424 | 59 | 105 | 3.0 | 7.0 | 0.00 | 0.56 | 0.00 | 80 | 1008.4 |
| 20260510093303 | 59 | 102 | 3.0 | 7.0 | 0.00 | 0.56 | 0.00 | 81 | 1008.3 |
| 20260510093224 | 59 | 102 | 3.0 | 7.0 | 0.00 | 0.56 | 0.00 | 81 | 1008.3 |
| 20260510093103 | 59 | 103 | 3.0 | 7.0 | 0.00 | 0.56 | 0.00 | 81 | 1008.2 |
| 20260510093003 | 59 | 103 | 3.0 | 7.0 | 0.00 | 0.56 | 0.00 | 79 | 1008.5 |
| 20260510092903 | 59 | 101 | 3.0 | 7.0 | 0.00 | 0.56 | 0.00 | 80 | 1008.3 |
| 20260510092824 | 59 | 99 | 2.0 | 7.0 | 0.00 | 0.56 | 0.00 | 81 | 1008.3 |
| 20260510092703 | 59 | 100 | 2.0 | 7.0 | 0.00 | 0.56 | 0.00 | 80 | 1008.4 |
| 20260510092603 | 59 | 95 | 2.0 | 4.0 | 0.00 | 0.56 | 0.00 | 80 | 1008.5 |
| 20260510092503 | 59 | 96 | 2.0 | 4.0 | 0.00 | 0.56 | 0.00 | 80 | 1008.1 |
| 20260510092403 | 59 | 97 | 2.0 | 4.0 | 0.00 | 0.56 | 0.00 | 81 | 1008.5 |
| 20260510092306 | 59 | 101 | 2.0 | 4.0 | 0.00 | 0.56 | 0.00 | 81 | 1008.5 |
| 20260510092203 | 59 | 97 | 3.0 | 6.0 | 0.00 | 0.56 | 0.00 | 81 | 1008.3 |
| 20260510092103 | 59 | 102 | 3.0 | 6.0 | 0.00 | 0.56 | 0.00 | 81 | 1008.4 |
| 20260510092003 | 59 | 107 | 3.0 | 6.0 | 0.00 | 0.56 | 0.00 | 82 | 1008.5 |
| 20260510091903 | 59 | 112 | 3.0 | 7.0 | 0.00 | 0.56 | 0.00 | 81 | 1008.3 |
| 20260510091803 | 59 | 117 | 4.0 | 7.0 | 0.00 | 0.56 | 0.00 | 80 | 1008.2 |
| 20260510091703 | 59 | 115 | 4.0 | 7.0 | 0.00 | 0.56 | 0.00 | 81 | 1008.5 |
| 20260510091603 | 59 | 114 | 4.0 | 7.0 | 0.00 | 0.56 | 0.00 | 82 | 1008.4 |
| 20260510091503 | 59 | 115 | 4.0 | 7.0 | 0.00 | 0.56 | 0.00 | 82 | 1008.3 |
| 20260510091424 | 59 | 115 | 4.0 | 7.0 | 0.00 | 0.56 | 0.00 | 82 | 1008.3 |
| 20260510091303 | 59 | 115 | 4.0 | 7.0 | 0.00 | 0.56 | 0.00 | 82 | 1008.3 |
| 20260510091203 | 59 | 115 | 4.0 | 7.0 | 0.00 | 0.56 | 0.00 | 82 | 1008.3 |
| 20260510091103 | 58 | 118 | 4.0 | 7.0 | 0.00 | 0.56 | 0.00 | 81 | 1008.2 |
| 20260510091003 | 58 | 113 | 4.0 | 7.0 | 0.00 | 0.56 | 0.00 | 81 | 1008.4 |
| 20260510090903 | 58 | 111 | 4.0 | 7.0 | 0.00 | 0.56 | 0.00 | 82 | 1008.4 |
| 20260510090824 | 58 | 107 | 3.0 | 7.0 | 0.00 | 0.56 | 0.00 | 83 | 1008.1 |
| 20260510090724 | 58 | 99 | 3.0 | 6.0 | 0.00 | 0.56 | 0.00 | 83 | 1008.3 |
| 20260510090603 | 58 | 105 | 3.0 | 6.0 | 0.00 | 0.56 | 0.00 | 83 | 1008.3 |
| 20260510090503 | 58 | 103 | 3.0 | 6.0 | 0.00 | 0.56 | 0.00 | 83 | 1008.3 |
| 20260510090403 | 58 | 110 | 3.0 | 7.0 | 0.00 | 0.56 | 0.00 | 83 | 1008.4 |
| 20260510090303 | 58 | 109 | 4.0 | 7.0 | 0.00 | 0.56 | 0.00 | 83 | 1008.2 |
| 20260510090203 | 58 | 105 | 3.0 | 7.0 | 0.00 | 0.56 | 0.00 | 83 | 1008.1 |
| 20260510090024 | 58 | 107 | 3.0 | 7.0 | 0.00 | 0.56 | 0.00 | 82 | 1008.2 |
| 20260510085924 | 58 | 104 | 3.0 | 7.0 | 0.00 | 0.56 | 0.00 | 83 | 1008.1 |
| 20260510085803 | 58 | 100 | 3.0 | 7.0 | 0.00 | 0.56 | 0.00 | 84 | 1008.1 |
| 20260510085703 | 58 | 104 | 3.0 | 7.0 | 0.00 | 0.56 | 0.00 | 84 | 1008.2 |
| 20260510085624 | 58 | 104 | 3.0 | 7.0 | 0.00 | 0.56 | 0.00 | 84 | 1008.2 |
| 20260510085503 | 57 | 98 | 3.0 | 7.0 | 0.00 | 0.56 | 0.00 | 84 | 1008.1 |
| 20260510085403 | 57 | 97 | 3.0 | 7.0 | 0.00 | 0.56 | 0.00 | 83 | 1008.0 |
| 20260510085306 | 57 | 83 | 3.0 | 7.0 | 0.00 | 0.56 | 0.00 | 83 | 1008.1 |
| 20260510085203 | 57 | 76 | 2.0 | 4.0 | 0.00 | 0.56 | 0.00 | 84 | 1008.2 |
| 20260510085103 | 57 | 80 | 3.0 | 4.0 | 0.00 | 0.56 | 0.00 | 83 | 1008.2 |
| 20260510085003 | 57 | 82 | 3.0 | 7.0 | 0.00 | 0.56 | 0.00 | 84 | 1008.3 |
| 20260510084903 | 57 | 83 | 3.0 | 7.0 | 0.00 | 0.56 | 0.00 | 84 | 1008.1 |
| 20260510084803 | 57 | 84 | 3.0 | 7.0 | 0.00 | 0.56 | 0.00 | 85 | 1008.2 |
| 20260510084703 | 57 | 85 | 3.0 | 7.0 | 0.00 | 0.56 | 0.00 | 85 | 1008.2 |
| 20260510084603 | 57 | 81 | 3.0 | 7.0 | 0.00 | 0.56 | 0.00 | 84 | 1008.3 |
| 20260510084503 | 57 | 80 | 2.0 | 7.0 | 0.00 | 0.56 | 0.00 | 85 | 1008.1 |
| 20260510084403 | 57 | 77 | 2.0 | 7.0 | 0.00 | 0.56 | 0.00 | 84 | 1008.1 |
| 20260510084303 | 57 | 80 | 2.0 | 7.0 | 0.00 | 0.56 | 0.00 | 85 | 1008.0 |
| 20260510084203 | 57 | 80 | 2.0 | 7.0 | 0.00 | 0.56 | 0.00 | 84 | 1008.3 |
| 20260510084103 | 57 | 79 | 2.0 | 7.0 | 0.00 | 0.56 | 0.00 | 84 | 1008.2 |
| 20260510084024 | 57 | 79 | 2.0 | 7.0 | 0.00 | 0.56 | 0.00 | 84 | 1008.2 |
| 20260510083903 | 56 | 80 | 2.0 | 4.0 | 0.00 | 0.56 | 0.00 | 85 | 1008.1 |
| 20260510083803 | 56 | 80 | 2.0 | 4.0 | 0.00 | 0.56 | 0.00 | 85 | 1008.1 |
| 20260510083703 | 56 | 76 | 2.0 | 4.0 | 0.00 | 0.56 | 0.00 | 85 | 1008.2 |
| 20260510083624 | 56 | 76 | 2.0 | 4.0 | 0.00 | 0.56 | 0.00 | 85 | 1008.2 |
| 20260510083503 | 56 | 72 | 2.0 | 4.0 | 0.00 | 0.56 | 0.00 | 85 | 1008.1 |
| 20260510083403 | 56 | 71 | 2.0 | 4.0 | 0.00 | 0.56 | 0.00 | 85 | 1008.2 |
| 20260510083303 | 56 | 72 | 2.0 | 4.0 | 0.00 | 0.56 | 0.00 | 85 | 1008.1 |
| 20260510083224 | 56 | 70 | 2.0 | 4.0 | 0.00 | 0.56 | 0.00 | 85 | 1008.4 |
| 20260510083103 | 56 | 67 | 1.0 | 4.0 | 0.00 | 0.56 | 0.00 | 85 | 1008.1 |
| 20260510083003 | 56 | 65 | 1.0 | 4.0 | 0.00 | 0.56 | 0.00 | 85 | 1008.3 |
| 20260510082924 | 56 | 55 | 1.0 | 3.0 | 0.00 | 0.56 | 0.00 | 85 | 1008.1 |
| 20260510082803 | 56 | 52 | 1.0 | 3.0 | 0.00 | 0.56 | 0.00 | 85 | 1008.1 |
| 20260510082703 | 56 | 48 | 1.0 | 3.0 | 0.00 | 0.56 | 0.00 | 85 | 1008.1 |
| 20260510082603 | 56 | 50 | 1.0 | 3.0 | 0.00 | 0.56 | 0.00 | 85 | 1008.0 |
| 20260510082503 | 56 | 50 | 1.0 | 3.0 | 0.00 | 0.56 | 0.00 | 86 | 1008.2 |
| 20260510082403 | 56 | 49 | 1.0 | 3.0 | 0.00 | 0.56 | 0.00 | 85 | 1008.1 |
| 20260510082306 | 56 | 55 | 1.0 | 3.0 | 0.00 | 0.56 | 0.00 | 86 | 1008.0 |
| 20260510082203 | 56 | 58 | 1.0 | 3.0 | 0.00 | 0.56 | 0.00 | 86 | 1008.1 |
| 20260510082104 | 56 | 58 | 1.0 | 3.0 | 0.00 | 0.56 | 0.00 | 86 | 1008.2 |
| 20260510082003 | 56 | 54 | 1.0 | 3.0 | 0.00 | 0.56 | 0.00 | 86 | 1008.1 |
| 20260510081903 | 56 | 53 | 1.0 | 3.0 | 0.00 | 0.56 | 0.00 | 87 | 1008.1 |
| 20260510081803 | 56 | 55 | 1.0 | 3.0 | 0.00 | 0.56 | 0.00 | 87 | 1008.2 |
| 20260510081724 | 56 | 55 | 1.0 | 3.0 | 0.00 | 0.56 | 0.00 | 87 | 1008.2 |
| 20260510081624 | 56 | 54 | 1.0 | 3.0 | 0.00 | 0.56 | 0.00 | 87 | 1007.9 |
| 20260510081524 | 56 | 53 | 1.0 | 3.0 | 0.00 | 0.56 | 0.00 | 86 | 1007.9 |
| 20260510081403 | 55 | 53 | 1.0 | 3.0 | 0.00 | 0.56 | 0.00 | 86 | 1008.1 |
| 20260510081303 | 55 | 57 | 1.0 | 3.0 | 0.00 | 0.56 | 0.00 | 87 | 1008.2 |
| 20260510081224 | 55 | 53 | 1.0 | 2.0 | 0.00 | 0.56 | 0.00 | 87 | 1008.0 |
| 20260510081103 | 55 | 53 | 1.0 | 2.0 | 0.00 | 0.56 | 0.00 | 87 | 1008.0 |
| 20260510081003 | 55 | 54 | 1.0 | 2.0 | 0.00 | 0.56 | 0.00 | 88 | 1007.9 |
| 20260510080904 | 55 | 58 | 1.0 | 3.0 | 0.00 | 0.56 | 0.00 | 88 | 1008.1 |
| 20260510080803 | 55 | 58 | 1.0 | 3.0 | 0.00 | 0.56 | 0.00 | 88 | 1008.1 |
| 20260510080703 | 55 | 63 | 1.0 | 3.0 | 0.00 | 0.56 | 0.00 | 88 | 1008.1 |
| 20260510080603 | 55 | 66 | 2.0 | 3.0 | 0.00 | 0.56 | 0.00 | 88 | 1008.0 |
| 20260510080503 | 55 | 64 | 2.0 | 3.0 | 0.00 | 0.56 | 0.00 | 88 | 1008.1 |
| 20260510080403 | 55 | 67 | 2.0 | 3.0 | 0.00 | 0.56 | 0.00 | 88 | 1008.0 |
| 20260510080303 | 55 | 75 | 2.0 | 3.0 | 0.00 | 0.56 | 0.00 | 88 | 1007.9 |
| 20260510080203 | 55 | 81 | 2.0 | 3.0 | 0.00 | 0.56 | 0.00 | 88 | 1007.8 |
| 20260510080103 | 55 | 81 | 2.0 | 3.0 | 0.00 | 0.56 | 0.00 | 88 | 1007.8 |
| 20260510080003 | 55 | 80 | 2.0 | 3.0 | 0.00 | 0.56 | 0.00 | 89 | 1008.0 |
| 20260510075903 | 55 | 82 | 2.0 | 3.0 | 0.00 | 0.56 | 0.00 | 88 | 1008.0 |
| 20260510075803 | 55 | 82 | 2.0 | 3.0 | 0.00 | 0.56 | 0.00 | 89 | 1008.0 |
| 20260510075703 | 55 | 80 | 2.0 | 3.0 | 0.00 | 0.56 | 0.00 | 88 | 1008.1 |
| 20260510075603 | 54 | 74 | 2.0 | 3.0 | 0.00 | 0.56 | 0.00 | 88 | 1008.2 |
| 20260510075524 | 54 | 70 | 2.0 | 3.0 | 0.00 | 0.56 | 0.00 | 88 | 1007.9 |
| 20260510075403 | 54 | 72 | 2.0 | 3.0 | 0.00 | 0.56 | 0.00 | 88 | 1008.0 |
| 20260510075306 | 54 | 74 | 2.0 | 4.0 | 0.00 | 0.56 | 0.00 | 88 | 1008.2 |
| 20260510075203 | 54 | 69 | 2.0 | 4.0 | 0.00 | 0.56 | 0.00 | 88 | 1007.9 |
| 20260510075103 | 54 | 64 | 2.0 | 4.0 | 0.00 | 0.56 | 0.00 | 88 | 1007.9 |
| 20260510075024 | 54 | 66 | 2.0 | 4.0 | 0.00 | 0.56 | 0.00 | 88 | 1008.1 |
| 20260510074903 | 54 | 63 | 1.0 | 4.0 | 0.00 | 0.56 | 0.00 | 89 | 1008.0 |
| 20260510074803 | 54 | 63 | 1.0 | 4.0 | 0.00 | 0.56 | 0.00 | 89 | 1007.8 |
| 20260510074724 | 54 | 63 | 1.0 | 4.0 | 0.00 | 0.56 | 0.00 | 89 | 1007.8 |
| 20260510074603 | 54 | 65 | 1.0 | 4.0 | 0.00 | 0.56 | 0.00 | 89 | 1007.9 |
| 20260510074503 | 54 | 64 | 1.0 | 4.0 | 0.00 | 0.56 | 0.00 | 89 | 1007.8 |
| 20260510074403 | 54 | 64 | 1.0 | 4.0 | 0.00 | 0.56 | 0.00 | 89 | 1007.8 |
| 20260510074303 | 54 | 63 | 2.0 | 4.0 | 0.00 | 0.56 | 0.00 | 89 | 1008.0 |
| 20260510074203 | 54 | 59 | 1.0 | 4.0 | 0.00 | 0.56 | 0.00 | 89 | 1007.8 |
| 20260510074103 | 54 | 53 | 1.0 | 3.0 | 0.00 | 0.56 | 0.00 | 89 | 1008.0 |
| 20260510074003 | 54 | 51 | 1.0 | 3.0 | 0.00 | 0.56 | 0.00 | 89 | 1008.0 |
| 20260510073903 | 53 | 47 | 1.0 | 3.0 | 0.00 | 0.56 | 0.00 | 90 | 1008.2 |
| 20260510073803 | 53 | 47 | 1.0 | 3.0 | 0.00 | 0.56 | 0.00 | 90 | 1008.1 |
| 20260510073703 | 53 | 47 | 2.0 | 3.0 | 0.00 | 0.56 | 0.00 | 90 | 1008.0 |
| 20260510073603 | 53 | 48 | 2.0 | 3.0 | 0.00 | 0.56 | 0.00 | 90 | 1008.0 |
| 20260510073503 | 53 | 50 | 2.0 | 3.0 | 0.00 | 0.56 | 0.00 | 90 | 1008.2 |
| 20260510073403 | 53 | 53 | 2.0 | 2.0 | 0.00 | 0.56 | 0.00 | 90 | 1008.0 |
| 20260510073303 | 53 | 54 | 2.0 | 2.0 | 0.00 | 0.56 | 0.00 | 90 | 1008.0 |
| 20260510073224 | 53 | 54 | 2.0 | 2.0 | 0.00 | 0.56 | 0.00 | 90 | 1008.0 |
| 20260510073104 | 53 | 58 | 2.0 | 3.0 | 0.00 | 0.56 | 0.00 | 90 | 1008.0 |
| 20260510073003 | 53 | 58 | 2.0 | 3.0 | 0.00 | 0.56 | 0.00 | 90 | 1008.0 |
| 20260510072903 | 53 | 61 | 2.0 | 3.0 | 0.00 | 0.56 | 0.00 | 90 | 1008.0 |
| 20260510072803 | 53 | 64 | 2.0 | 3.0 | 0.00 | 0.56 | 0.00 | 90 | 1008.0 |
| 20260510072703 | 53 | 67 | 2.0 | 3.0 | 0.00 | 0.56 | 0.00 | 90 | 1007.8 |
| 20260510072603 | 53 | 68 | 2.0 | 4.0 | 0.00 | 0.56 | 0.00 | 90 | 1007.8 |
| 20260510072503 | 53 | 68 | 2.0 | 4.0 | 0.00 | 0.56 | 0.00 | 90 | 1007.8 |
| 20260510072407 | 53 | 74 | 2.0 | 4.0 | 0.00 | 0.56 | 0.00 | 90 | 1007.9 |
| 20260510072305 | 53 | 80 | 3.0 | 6.0 | 0.00 | 0.56 | 0.00 | 90 | 1007.8 |
| 20260510072203 | 53 | 78 | 3.0 | 6.0 | 0.00 | 0.56 | 0.00 | 89 | 1007.8 |
| 20260510072103 | 53 | 80 | 3.0 | 6.0 | 0.00 | 0.56 | 0.00 | 89 | 1008.0 |
| 20260510072003 | 53 | 84 | 3.0 | 6.0 | 0.00 | 0.56 | 0.00 | 89 | 1007.9 |
| 20260510071903 | 53 | 89 | 3.0 | 6.0 | 0.00 | 0.56 | 0.00 | 89 | 1008.2 |
| 20260510071803 | 53 | 84 | 3.0 | 6.0 | 0.00 | 0.56 | 0.00 | 89 | 1007.9 |
| 20260510071703 | 53 | 86 | 3.0 | 6.0 | 0.00 | 0.56 | 0.00 | 89 | 1008.0 |
| 20260510071603 | 53 | 90 | 3.0 | 6.0 | 0.00 | 0.56 | 0.00 | 89 | 1007.9 |
| 20260510071503 | 53 | 92 | 3.0 | 6.0 | 0.00 | 0.56 | 0.00 | 89 | 1007.8 |
| 20260510071426 | 53 | 88 | 3.0 | 6.0 | 0.00 | 0.56 | 0.00 | 89 | 1007.7 |
| 20260510071324 | 53 | 86 | 3.0 | 6.0 | 0.00 | 0.56 | 0.00 | 89 | 1007.8 |
| 20260510071203 | 53 | 88 | 3.0 | 6.0 | 0.00 | 0.56 | 0.00 | 89 | 1007.9 |
| 20260510071103 | 53 | 87 | 3.0 | 6.0 | 0.00 | 0.56 | 0.00 | 90 | 1007.8 |
| 20260510071003 | 53 | 85 | 3.0 | 6.0 | 0.00 | 0.56 | 0.00 | 90 | 1007.9 |
| 20260510070903 | 53 | 85 | 3.0 | 6.0 | 0.00 | 0.56 | 0.00 | 90 | 1007.9 |
| 20260510070824 | 53 | 81 | 3.0 | 6.0 | 0.00 | 0.56 | 0.00 | 90 | 1007.9 |
| 20260510070724 | 53 | 86 | 3.0 | 4.0 | 0.00 | 0.56 | 0.00 | 90 | 1007.8 |
| 20260510070603 | 53 | 83 | 3.0 | 4.0 | 0.00 | 0.56 | 0.00 | 90 | 1007.7 |
| 20260510070503 | 53 | 76 | 3.0 | 4.0 | 0.00 | 0.56 | 0.00 | 90 | 1007.9 |
| 20260510070403 | 53 | 73 | 2.0 | 4.0 | 0.00 | 0.56 | 0.00 | 90 | 1007.9 |
| 20260510070303 | 53 | 73 | 2.0 | 3.0 | 0.00 | 0.56 | 0.00 | 90 | 1007.8 |
| 20260510070203 | 53 | 70 | 2.0 | 3.0 | 0.00 | 0.56 | 0.00 | 90 | 1007.9 |
| 20260510070103 | 53 | 70 | 2.0 | 3.0 | 0.00 | 0.56 | 0.00 | 90 | 1008.0 |
| 20260510070003 | 53 | 68 | 2.0 | 3.0 | 0.00 | 0.56 | 0.00 | 90 | 1007.9 |
| 20260510065924 | 53 | 66 | 2.0 | 3.0 | 0.00 | 0.56 | 0.00 | 89 | 1007.7 |
| 20260510065803 | 53 | 73 | 2.0 | 4.0 | 0.00 | 0.56 | 0.00 | 89 | 1008.0 |
| 20260510065703 | 53 | 72 | 2.0 | 4.0 | 0.00 | 0.56 | 0.00 | 89 | 1007.9 |
| 20260510065603 | 53 | 73 | 2.0 | 4.0 | 0.00 | 0.56 | 0.00 | 89 | 1007.8 |
| 20260510065503 | 53 | 74 | 2.0 | 4.0 | 0.00 | 0.56 | 0.00 | 89 | 1007.9 |
| 20260510065403 | 53 | 80 | 2.0 | 4.0 | 0.00 | 0.56 | 0.00 | 89 | 1007.9 |
| 20260510065306 | 53 | 89 | 2.0 | 4.0 | 0.00 | 0.56 | 0.00 | 88 | 1007.9 |
| 20260510065224 | 53 | 89 | 2.0 | 4.0 | 0.00 | 0.56 | 0.00 | 88 | 1007.9 |
| 20260510065103 | 53 | 89 | 2.0 | 4.0 | 0.00 | 0.56 | 0.00 | 88 | 1007.7 |
| 20260510065003 | 53 | 90 | 2.0 | 4.0 | 0.00 | 0.56 | 0.00 | 88 | 1007.8 |
| 20260510064924 | 53 | 95 | 2.0 | 4.0 | 0.00 | 0.56 | 0.00 | 88 | 1007.6 |
| 20260510064803 | 53 | 93 | 2.0 | 4.0 | 0.00 | 0.56 | 0.00 | 88 | 1007.7 |
| 20260510064703 | 53 | 87 | 2.0 | 4.0 | 0.00 | 0.56 | 0.00 | 88 | 1007.7 |
| 20260510064603 | 53 | 88 | 2.0 | 4.0 | 0.00 | 0.56 | 0.00 | 88 | 1007.8 |
| 20260510064503 | 53 | 86 | 2.0 | 4.0 | 0.00 | 0.56 | 0.00 | 88 | 1007.6 |
| 20260510064424 | 53 | 86 | 2.0 | 4.0 | 0.00 | 0.56 | 0.00 | 88 | 1007.6 |
| 20260510064303 | 53 | 77 | 2.0 | 4.0 | 0.00 | 0.56 | 0.00 | 89 | 1007.8 |
| 20260510064203 | 53 | 64 | 2.0 | 3.0 | 0.00 | 0.56 | 0.00 | 89 | 1007.8 |
| 20260510064103 | 53 | 63 | 2.0 | 3.0 | 0.00 | 0.56 | 0.00 | 89 | 1007.9 |
| 20260510064024 | 53 | 63 | 2.0 | 3.0 | 0.00 | 0.56 | 0.00 | 89 | 1007.9 |
| 20260510063924 | 53 | 62 | 2.0 | 3.0 | 0.00 | 0.56 | 0.00 | 89 | 1007.9 |
| 20260510063824 | 53 | 56 | 2.0 | 3.0 | 0.00 | 0.56 | 0.00 | 90 | 1007.8 |
| 20260510063703 | 53 | 59 | 2.0 | 3.0 | 0.00 | 0.56 | 0.00 | 90 | 1007.7 |
| 20260510063603 | 53 | 60 | 2.0 | 3.0 | 0.00 | 0.56 | 0.00 | 90 | 1007.8 |
| 20260510063503 | 53 | 65 | 2.0 | 3.0 | 0.00 | 0.56 | 0.00 | 90 | 1007.8 |
| 20260510063424 | 53 | 66 | 2.0 | 3.0 | 0.00 | 0.56 | 0.00 | 90 | 1007.9 |
| 20260510063324 | 53 | 66 | 2.0 | 3.0 | 0.00 | 0.56 | 0.00 | 90 | 1007.9 |
| 20260510063224 | 53 | 67 | 2.0 | 3.0 | 0.00 | 0.56 | 0.00 | 90 | 1007.8 |
| 20260510063124 | 53 | 70 | 2.0 | 3.0 | 0.00 | 0.56 | 0.00 | 89 | 1007.8 |
| 20260510063024 | 53 | 73 | 2.0 | 3.0 | 0.00 | 0.56 | 0.00 | 89 | 1007.8 |
| 20260510062924 | 53 | 79 | 2.0 | 3.0 | 0.00 | 0.56 | 0.00 | 89 | 1007.9 |
| 20260510062803 | 53 | 83 | 3.0 | 6.0 | 0.00 | 0.56 | 0.00 | 89 | 1007.8 |
| 20260510062703 | 53 | 82 | 3.0 | 6.0 | 0.00 | 0.56 | 0.00 | 89 | 1007.7 |
| 20260510062603 | 53 | 87 | 3.0 | 6.0 | 0.00 | 0.56 | 0.00 | 89 | 1007.4 |
| 20260510062503 | 53 | 83 | 2.0 | 6.0 | 0.00 | 0.56 | 0.00 | 89 | 1007.7 |
| 20260510062403 | 53 | 83 | 2.0 | 6.0 | 0.00 | 0.56 | 0.00 | 89 | 1007.6 |
| 20260510062306 | 53 | 89 | 3.0 | 6.0 | 0.00 | 0.56 | 0.00 | 89 | 1007.7 |
| 20260510062203 | 53 | 89 | 3.0 | 6.0 | 0.00 | 0.56 | 0.00 | 89 | 1007.6 |
| 20260510062103 | 53 | 89 | 3.0 | 6.0 | 0.00 | 0.56 | 0.00 | 89 | 1007.6 |
| 20260510062003 | 53 | 86 | 3.0 | 6.0 | 0.00 | 0.56 | 0.00 | 89 | 1007.6 |
| 20260510061903 | 53 | 85 | 2.0 | 6.0 | 0.00 | 0.56 | 0.00 | 89 | 1007.7 |
| 20260510061803 | 53 | 79 | 2.0 | 6.0 | 0.00 | 0.56 | 0.00 | 89 | 1007.5 |
| 20260510061703 | 53 | 74 | 2.0 | 4.0 | 0.00 | 0.56 | 0.00 | 89 | 1007.6 |
| 20260510061603 | 53 | 75 | 2.0 | 4.0 | 0.00 | 0.56 | 0.00 | 89 | 1007.5 |
| 20260510061524 | 53 | 65 | 2.0 | 4.0 | 0.00 | 0.56 | 0.00 | 89 | 1007.7 |
| 20260510061424 | 53 | 65 | 2.0 | 4.0 | 0.00 | 0.56 | 0.00 | 89 | 1007.6 |
| 20260510061303 | 52 | 68 | 2.0 | 4.0 | 0.00 | 0.56 | 0.00 | 89 | 1007.7 |
| 20260510061224 | 52 | 65 | 2.0 | 3.0 | 0.00 | 0.56 | 0.00 | 89 | 1007.5 |
| 20260510061103 | 52 | 66 | 2.0 | 3.0 | 0.00 | 0.56 | 0.00 | 89 | 1007.6 |
| 20260510061003 | 52 | 68 | 2.0 | 3.0 | 0.00 | 0.56 | 0.00 | 89 | 1007.5 |
| 20260510060903 | 52 | 72 | 2.0 | 3.0 | 0.00 | 0.56 | 0.00 | 89 | 1007.4 |
| 20260510060803 | 52 | 83 | 2.0 | 6.0 | 0.00 | 0.56 | 0.00 | 89 | 1007.6 |
| 20260510060703 | 52 | 84 | 2.0 | 6.0 | 0.00 | 0.56 | 0.00 | 89 | 1007.7 |
| 20260510060603 | 52 | 92 | 2.0 | 6.0 | 0.00 | 0.56 | 0.00 | 89 | 1007.5 |
| 20260510060503 | 53 | 96 | 3.0 | 6.0 | 0.00 | 0.56 | 0.00 | 89 | 1007.5 |
| 20260510060424 | 53 | 96 | 3.0 | 6.0 | 0.00 | 0.56 | 0.00 | 89 | 1007.5 |
| 20260510060324 | 53 | 97 | 3.0 | 6.0 | 0.00 | 0.56 | 0.00 | 89 | 1007.5 |
| 20260510060224 | 53 | 95 | 2.0 | 6.0 | 0.00 | 0.56 | 0.00 | 89 | 1007.5 |
| 20260510060003 | 53 | 98 | 3.0 | 6.0 | 0.00 | 0.56 | 0.00 | 88 | 1007.6 |
| 20260510055903 | 53 | 96 | 3.0 | 6.0 | 0.00 | 0.56 | 0.00 | 88 | 1007.4 |
| 20260510055803 | 52 | 94 | 3.0 | 6.0 | 0.00 | 0.56 | 0.00 | 89 | 1007.6 |
| 20260510055703 | 52 | 89 | 2.0 | 4.0 | 0.00 | 0.56 | 0.00 | 89 | 1007.5 |
| 20260510055603 | 52 | 92 | 2.0 | 4.0 | 0.00 | 0.56 | 0.00 | 89 | 1007.6 |
| 20260510055503 | 52 | 82 | 2.0 | 4.0 | 0.00 | 0.56 | 0.00 | 89 | 1007.5 |
| 20260510055403 | 52 | 83 | 2.0 | 4.0 | 0.00 | 0.56 | 0.00 | 89 | 1007.4 |
| 20260510055306 | 52 | 82 | 2.0 | 4.0 | 0.00 | 0.56 | 0.00 | 89 | 1007.5 |
| 20260510055203 | 52 | 83 | 2.0 | 4.0 | 0.00 | 0.56 | 0.00 | 89 | 1007.7 |
| 20260510055124 | 52 | 82 | 2.0 | 4.0 | 0.00 | 0.56 | 0.00 | 89 | 1007.5 |
| 20260510055003 | 52 | 88 | 3.0 | 7.0 | 0.00 | 0.56 | 0.00 | 89 | 1007.5 |
| 20260510054902 | 52 | 84 | 3.0 | 7.0 | 0.00 | 0.56 | 0.00 | 89 | 1007.4 |
| 20260510054803 | 52 | 85 | 3.0 | 7.0 | 0.00 | 0.56 | 0.00 | 89 | 1007.5 |
| 20260510054702 | 52 | 84 | 3.0 | 7.0 | 0.00 | 0.56 | 0.00 | 89 | 1007.5 |
| 20260510054603 | 52 | 90 | 3.0 | 7.0 | 0.00 | 0.56 | 0.00 | 89 | 1007.4 |
| 20260510054502 | 52 | 93 | 3.0 | 7.0 | 0.00 | 0.56 | 0.00 | 89 | 1007.5 |
| 20260510054403 | 52 | 93 | 3.0 | 7.0 | 0.00 | 0.56 | 0.00 | 89 | 1007.5 |
| 20260510054302 | 52 | 95 | 3.0 | 7.0 | 0.00 | 0.56 | 0.00 | 89 | 1007.5 |
| 20260510054202 | 52 | 102 | 3.0 | 7.0 | 0.00 | 0.56 | 0.00 | 89 | 1007.4 |
| 20260510054103 | 52 | 93 | 4.0 | 7.0 | 0.00 | 0.56 | 0.00 | 89 | 1007.4 |
| 20260510054002 | 52 | 91 | 4.0 | 7.0 | 0.00 | 0.56 | 0.00 | 89 | 1007.2 |
| 20260510053903 | 52 | 96 | 4.0 | 8.0 | 0.00 | 0.56 | 0.00 | 89 | 1007.3 |
| 20260510053803 | 52 | 102 | 4.0 | 8.0 | 0.00 | 0.56 | 0.00 | 89 | 1007.4 |
| 20260510053702 | 52 | 109 | 4.0 | 8.0 | 0.00 | 0.56 | 0.00 | 89 | 1007.3 |
| 20260510053603 | 52 | 109 | 4.0 | 8.0 | 0.00 | 0.56 | 0.00 | 89 | 1007.4 |
| 20260510053502 | 52 | 109 | 4.0 | 8.0 | 0.00 | 0.56 | 0.00 | 89 | 1007.2 |
| 20260510053402 | 52 | 111 | 4.0 | 8.0 | 0.00 | 0.56 | 0.00 | 89 | 1007.5 |
| 20260510053303 | 52 | 114 | 4.0 | 8.0 | 0.00 | 0.56 | 0.00 | 89 | 1007.3 |
| 20260510053202 | 52 | 113 | 4.0 | 8.0 | 0.00 | 0.56 | 0.00 | 89 | 1007.3 |
| 20260510053103 | 52 | 118 | 4.0 | 8.0 | 0.00 | 0.56 | 0.00 | 89 | 1007.3 |
| 20260510053003 | 52 | 121 | 4.0 | 8.0 | 0.00 | 0.56 | 0.00 | 89 | 1007.3 |
| 20260510052902 | 52 | 113 | 3.0 | 7.0 | 0.00 | 0.56 | 0.00 | 89 | 1007.1 |
| 20260510052802 | 52 | 113 | 3.0 | 7.0 | 0.00 | 0.56 | 0.00 | 89 | 1007.1 |
| 20260510052702 | 52 | 113 | 3.0 | 7.0 | 0.00 | 0.56 | 0.00 | 90 | 1007.3 |
| 20260510052602 | 52 | 105 | 2.0 | 7.0 | 0.00 | 0.56 | 0.00 | 90 | 1007.2 |
| 20260510052503 | 52 | 104 | 2.0 | 7.0 | 0.00 | 0.56 | 0.00 | 90 | 1007.2 |
| 20260510052402 | 52 | 95 | 2.0 | 7.0 | 0.00 | 0.56 | 0.00 | 90 | 1007.2 |
| 20260510052306 | 52 | 85 | 1.0 | 7.0 | 0.00 | 0.56 | 0.00 | 90 | 1007.3 |
| 20260510052202 | 52 | 58 | 1.0 | 3.0 | 0.00 | 0.56 | 0.00 | 90 | 1007.2 |
| 20260510052103 | 52 | 57 | 1.0 | 3.0 | 0.00 | 0.56 | 0.00 | 90 | 1007.2 |
| 20260510052003 | 52 | 58 | 1.0 | 3.0 | 0.00 | 0.56 | 0.00 | 90 | 1007.1 |
| 20260510051903 | 52 | 51 | 1.0 | 4.0 | 0.00 | 0.56 | 0.00 | 90 | 1007.2 |
| 20260510051803 | 52 | 52 | 1.0 | 4.0 | 0.00 | 0.56 | 0.00 | 90 | 1007.1 |
| 20260510051702 | 52 | 59 | 1.0 | 4.0 | 0.00 | 0.56 | 0.00 | 90 | 1007.2 |
| 20260510051603 | 52 | 75 | 2.0 | 6.0 | 0.00 | 0.56 | 0.00 | 90 | 1007.1 |
| 20260510051502 | 52 | 81 | 2.0 | 6.0 | 0.00 | 0.56 | 0.00 | 90 | 1007.1 |
| 20260510051403 | 52 | 80 | 2.0 | 6.0 | 0.00 | 0.56 | 0.00 | 90 | 1007.2 |
| 20260510051303 | 52 | 79 | 2.0 | 6.0 | 0.00 | 0.56 | 0.00 | 90 | 1007.0 |
| 20260510051203 | 52 | 79 | 2.0 | 6.0 | 0.00 | 0.56 | 0.00 | 90 | 1007.0 |
| 20260510051102 | 52 | 85 | 2.0 | 6.0 | 0.00 | 0.56 | 0.00 | 89 | 1007.1 |
| 20260510051003 | 52 | 82 | 2.0 | 6.0 | 0.00 | 0.56 | 0.00 | 89 | 1007.2 |
| 20260510050902 | 52 | 78 | 3.0 | 7.0 | 0.00 | 0.56 | 0.00 | 89 | 1007.1 |
| 20260510050803 | 52 | 91 | 3.0 | 7.0 | 0.00 | 0.56 | 0.00 | 89 | 1007.2 |
| 20260510050702 | 52 | 89 | 3.0 | 7.0 | 0.00 | 0.56 | 0.00 | 89 | 1007.1 |
| 20260510050602 | 52 | 89 | 3.0 | 7.0 | 0.00 | 0.56 | 0.00 | 90 | 1007.1 |
| 20260510050503 | 52 | 77 | 3.0 | 7.0 | 0.00 | 0.56 | 0.00 | 90 | 1007.0 |
| 20260510050403 | 52 | 75 | 3.0 | 7.0 | 0.00 | 0.56 | 0.00 | 90 | 1007.0 |
| 20260510050323 | 52 | 81 | 3.0 | 7.0 | 0.00 | 0.56 | 0.00 | 90 | 1007.1 |
| 20260510050202 | 52 | 87 | 3.0 | 7.0 | 0.00 | 0.56 | 0.00 | 90 | 1007.2 |
| 20260510050003 | 52 | 85 | 3.0 | 7.0 | 0.00 | 0.56 | 0.00 | 90 | 1007.1 |
| 20260510045903 | 52 | 97 | 3.0 | 6.0 | 0.00 | 0.56 | 0.00 | 90 | 1006.9 |
| 20260510045803 | 52 | 99 | 3.0 | 6.0 | 0.00 | 0.56 | 0.00 | 90 | 1007.2 |
| 20260510045702 | 52 | 99 | 3.0 | 6.0 | 0.00 | 0.56 | 0.00 | 90 | 1007.2 |
| 20260510045602 | 52 | 99 | 3.0 | 6.0 | 0.00 | 0.56 | 0.00 | 90 | 1007.1 |
| 20260510045503 | 52 | 94 | 3.0 | 6.0 | 0.00 | 0.56 | 0.00 | 90 | 1007.1 |
| 20260510045403 | 52 | 97 | 3.0 | 6.0 | 0.00 | 0.56 | 0.00 | 90 | 1007.0 |
| 20260510045306 | 52 | 93 | 3.0 | 6.0 | 0.00 | 0.56 | 0.00 | 90 | 1006.9 |
| 20260510045223 | 52 | 93 | 3.0 | 6.0 | 0.00 | 0.56 | 0.00 | 90 | 1006.9 |
| 20260510045103 | 52 | 87 | 3.0 | 6.0 | 0.00 | 0.56 | 0.00 | 90 | 1007.1 |
| 20260510045002 | 52 | 89 | 3.0 | 6.0 | 0.00 | 0.56 | 0.00 | 90 | 1007.2 |
| 20260510044902 | 52 | 90 | 3.0 | 6.0 | 0.00 | 0.56 | 0.00 | 90 | 1007.2 |
| 20260510044803 | 52 | 82 | 2.0 | 6.0 | 0.00 | 0.56 | 0.00 | 90 | 1007.1 |
| 20260510044724 | 52 | 74 | 2.0 | 4.0 | 0.00 | 0.56 | 0.00 | 90 | 1007.0 |
| 20260510044603 | 52 | 75 | 2.0 | 4.0 | 0.00 | 0.56 | 0.00 | 90 | 1007.1 |
| 20260510044503 | 52 | 79 | 2.0 | 4.0 | 0.00 | 0.56 | 0.00 | 90 | 1006.9 |
| 20260510044403 | 52 | 88 | 3.0 | 7.0 | 0.00 | 0.56 | 0.00 | 90 | 1007.1 |
| 20260510044303 | 52 | 92 | 3.0 | 7.0 | 0.00 | 0.56 | 0.00 | 90 | 1007.1 |
| 20260510044202 | 52 | 94 | 3.0 | 7.0 | 0.00 | 0.56 | 0.00 | 90 | 1007.1 |
| 20260510044103 | 52 | 95 | 3.0 | 7.0 | 0.00 | 0.56 | 0.00 | 90 | 1007.1 |
| 20260510044002 | 52 | 95 | 3.0 | 7.0 | 0.00 | 0.56 | 0.00 | 90 | 1007.1 |
| 20260510043923 | 52 | 105 | 4.0 | 8.0 | 0.00 | 0.56 | 0.00 | 90 | 1007.1 |
| 20260510043823 | 52 | 105 | 4.0 | 8.0 | 0.00 | 0.56 | 0.00 | 89 | 1007.2 |
| 20260510043702 | 52 | 107 | 4.0 | 8.0 | 0.00 | 0.56 | 0.00 | 89 | 1007.1 |
| 20260510043602 | 52 | 103 | 4.0 | 8.0 | 0.00 | 0.56 | 0.00 | 90 | 1007.2 |
| 20260510043503 | 52 | 105 | 4.0 | 8.0 | 0.00 | 0.56 | 0.00 | 89 | 1007.1 |
| 20260510043403 | 52 | 107 | 4.0 | 8.0 | 0.00 | 0.56 | 0.00 | 89 | 1007.2 |
| 20260510043323 | 52 | 101 | 4.0 | 8.0 | 0.00 | 0.56 | 0.00 | 89 | 1007.2 |
| 20260510043203 | 52 | 99 | 4.0 | 8.0 | 0.00 | 0.56 | 0.00 | 89 | 1007.0 |
| 20260510043102 | 52 | 97 | 4.0 | 8.0 | 0.00 | 0.56 | 0.00 | 89 | 1007.3 |
| 20260510043002 | 52 | 100 | 4.0 | 8.0 | 0.00 | 0.56 | 0.00 | 90 | 1007.3 |
| 20260510042902 | 52 | 93 | 3.0 | 7.0 | 0.00 | 0.56 | 0.00 | 89 | 1007.0 |
| 20260510042824 | 52 | 93 | 3.0 | 7.0 | 0.00 | 0.56 | 0.00 | 89 | 1007.0 |
| 20260510042703 | 52 | 92 | 3.0 | 7.0 | 0.00 | 0.56 | 0.00 | 89 | 1007.1 |
| 20260510042602 | 52 | 97 | 3.0 | 7.0 | 0.00 | 0.56 | 0.00 | 90 | 1007.3 |
| 20260510042502 | 52 | 102 | 3.0 | 6.0 | 0.00 | 0.56 | 0.00 | 90 | 1007.3 |
| 20260510042402 | 52 | 100 | 3.0 | 6.0 | 0.00 | 0.56 | 0.00 | 90 | 1007.2 |
| 20260510042305 | 52 | 102 | 3.0 | 6.0 | 0.00 | 0.56 | 0.00 | 90 | 1007.1 |
| 20260510042202 | 52 | 105 | 3.0 | 6.0 | 0.00 | 0.56 | 0.00 | 90 | 1007.2 |
| 20260510042103 | 52 | 105 | 3.0 | 6.0 | 0.00 | 0.56 | 0.00 | 90 | 1007.2 |
| 20260510042002 | 52 | 104 | 3.0 | 6.0 | 0.00 | 0.56 | 0.00 | 90 | 1007.1 |
| 20260510041924 | 52 | 99 | 3.0 | 6.0 | 0.00 | 0.56 | 0.00 | 91 | 1007.3 |
| 20260510041804 | 52 | 94 | 3.0 | 6.0 | 0.00 | 0.56 | 0.00 | 91 | 1007.3 |
| 20260510041703 | 52 | 90 | 2.0 | 6.0 | 0.00 | 0.56 | 0.00 | 91 | 1007.2 |
| 20260510041603 | 52 | 92 | 2.0 | 6.0 | 0.00 | 0.56 | 0.00 | 91 | 1007.1 |
| 20260510041503 | 52 | 91 | 2.0 | 6.0 | 0.00 | 0.56 | 0.00 | 91 | 1007.3 |
| 20260510041402 | 52 | 78 | 2.0 | 3.0 | 0.00 | 0.56 | 0.00 | 90 | 1007.3 |
| 20260510041302 | 52 | 72 | 2.0 | 3.0 | 0.00 | 0.56 | 0.00 | 90 | 1007.4 |
| 20260510041223 | 52 | 70 | 2.0 | 3.0 | 0.00 | 0.56 | 0.00 | 90 | 1007.3 |
| 20260510041102 | 52 | 64 | 2.0 | 3.0 | 0.00 | 0.56 | 0.00 | 90 | 1007.2 |
| 20260510041024 | 52 | 64 | 2.0 | 3.0 | 0.00 | 0.56 | 0.00 | 90 | 1007.2 |
| 20260510040903 | 52 | 64 | 2.0 | 3.0 | 0.00 | 0.56 | 0.00 | 90 | 1007.2 |
| 20260510040803 | 52 | 61 | 2.0 | 3.0 | 0.00 | 0.56 | 0.00 | 90 | 1007.2 |
| 20260510040724 | 52 | 61 | 2.0 | 3.0 | 0.00 | 0.56 | 0.00 | 90 | 1007.2 |
| 20260510040624 | 52 | 59 | 2.0 | 2.0 | 0.00 | 0.56 | 0.00 | 90 | 1007.3 |
| 20260510040503 | 52 | 61 | 2.0 | 3.0 | 0.00 | 0.56 | 0.00 | 90 | 1007.2 |
| 20260510040402 | 53 | 61 | 2.0 | 3.0 | 0.00 | 0.56 | 0.00 | 89 | 1007.2 |
| 20260510040302 | 53 | 69 | 2.0 | 3.0 | 0.00 | 0.56 | 0.00 | 89 | 1007.4 |
| 20260510040203 | 53 | 69 | 2.0 | 3.0 | 0.00 | 0.56 | 0.00 | 89 | 1007.2 |
| 20260510040003 | 53 | 82 | 2.0 | 3.0 | 0.00 | 0.56 | 0.00 | 89 | 1007.1 |
| 20260510035924 | 53 | 81 | 2.0 | 4.0 | 0.00 | 0.56 | 0.00 | 88 | 1007.2 |
| 20260510035803 | 53 | 82 | 2.0 | 4.0 | 0.00 | 0.56 | 0.00 | 88 | 1007.3 |
| 20260510035703 | 53 | 81 | 2.0 | 4.0 | 0.00 | 0.56 | 0.00 | 89 | 1007.2 |
| 20260510035602 | 53 | 85 | 2.0 | 4.0 | 0.00 | 0.56 | 0.00 | 89 | 1007.2 |
| 20260510035523 | 53 | 83 | 2.0 | 4.0 | 0.00 | 0.56 | 0.00 | 89 | 1007.3 |
| 20260510035402 | 53 | 82 | 2.0 | 4.0 | 0.00 | 0.56 | 0.00 | 89 | 1007.2 |
| 20260510035306 | 53 | 82 | 2.0 | 4.0 | 0.00 | 0.56 | 0.00 | 89 | 1007.1 |
| 20260510035223 | 53 | 73 | 2.0 | 4.0 | 0.00 | 0.56 | 0.00 | 89 | 1007.3 |
| 20260510035124 | 53 | 69 | 2.0 | 4.0 | 0.00 | 0.56 | 0.00 | 89 | 1007.1 |
| 20260510035003 | 53 | 58 | 1.0 | 4.0 | 0.00 | 0.56 | 0.00 | 89 | 1007.3 |
| 20260510034903 | 53 | 54 | 1.0 | 2.0 | 0.00 | 0.56 | 0.00 | 89 | 1007.1 |
| 20260510034803 | 53 | 54 | 1.0 | 2.0 | 0.00 | 0.56 | 0.00 | 89 | 1007.3 |
| 20260510034703 | 53 | 55 | 1.0 | 2.0 | 0.00 | 0.56 | 0.00 | 89 | 1007.3 |
| 20260510034603 | 53 | 55 | 1.0 | 2.0 | 0.00 | 0.56 | 0.00 | 89 | 1007.3 |
| 20260510034503 | 53 | 55 | 1.0 | 2.0 | 0.00 | 0.56 | 0.00 | 90 | 1007.2 |
| 20260510034402 | 53 | 58 | 1.0 | 2.0 | 0.00 | 0.56 | 0.00 | 90 | 1007.3 |
| 20260510034302 | 53 | 56 | 1.0 | 2.0 | 0.00 | 0.56 | 0.00 | 90 | 1007.5 |
| 20260510034202 | 53 | 56 | 1.0 | 2.0 | 0.00 | 0.56 | 0.00 | 90 | 1007.4 |
| 20260510034102 | 53 | 58 | 1.0 | 2.0 | 0.00 | 0.56 | 0.00 | 90 | 1007.4 |
| 20260510034024 | 53 | 70 | 1.0 | 4.0 | 0.00 | 0.56 | 0.00 | 90 | 1007.4 |
| 20260510033902 | 53 | 70 | 2.0 | 4.0 | 0.00 | 0.56 | 0.00 | 90 | 1007.4 |
| 20260510033803 | 53 | 89 | 2.0 | 7.0 | 0.00 | 0.56 | 0.00 | 90 | 1007.3 |
| 20260510033703 | 53 | 89 | 2.0 | 7.0 | 0.00 | 0.56 | 0.00 | 90 | 1007.3 |
| 20260510033603 | 53 | 89 | 2.0 | 7.0 | 0.00 | 0.56 | 0.00 | 90 | 1007.4 |
| 20260510033503 | 53 | 89 | 2.0 | 7.0 | 0.00 | 0.56 | 0.00 | 90 | 1007.3 |
| 20260510033403 | 53 | 89 | 2.0 | 7.0 | 0.00 | 0.56 | 0.00 | 90 | 1007.3 |
| 20260510033303 | 53 | 92 | 2.0 | 7.0 | 0.00 | 0.56 | 0.00 | 90 | 1007.3 |
| 20260510033203 | 53 | 96 | 3.0 | 7.0 | 0.00 | 0.56 | 0.00 | 90 | 1007.4 |
| 20260510033103 | 53 | 95 | 3.0 | 7.0 | 0.00 | 0.56 | 0.00 | 91 | 1007.3 |
| 20260510033003 | 53 | 88 | 3.0 | 7.0 | 0.00 | 0.56 | 0.00 | 91 | 1007.1 |
| 20260510032903 | 53 | 97 | 3.0 | 7.0 | 0.00 | 0.56 | 0.00 | 91 | 1007.4 |
| 20260510032802 | 53 | 86 | 3.0 | 7.0 | 0.00 | 0.56 | 0.00 | 91 | 1007.2 |
| 20260510032703 | 53 | 92 | 3.0 | 7.0 | 0.00 | 0.56 | 0.00 | 91 | 1007.4 |
| 20260510032603 | 53 | 96 | 3.0 | 7.0 | 0.00 | 0.56 | 0.00 | 91 | 1007.3 |
| 20260510032524 | 53 | 96 | 3.0 | 7.0 | 0.00 | 0.56 | 0.00 | 91 | 1007.3 |
| 20260510032402 | 52 | 98 | 3.0 | 7.0 | 0.00 | 0.56 | 0.00 | 91 | 1007.4 |
| 20260510032305 | 52 | 99 | 3.0 | 7.0 | 0.00 | 0.56 | 0.00 | 92 | 1007.3 |
| 20260510032203 | 52 | 98 | 3.0 | 7.0 | 0.00 | 0.56 | 0.00 | 92 | 1007.2 |
| 20260510032102 | 52 | 93 | 2.0 | 7.0 | 0.00 | 0.56 | 0.00 | 92 | 1007.2 |
| 20260510032002 | 52 | 96 | 2.0 | 7.0 | 0.00 | 0.56 | 0.00 | 92 | 1007.3 |
| 20260510031902 | 52 | 97 | 2.0 | 7.0 | 0.00 | 0.56 | 0.00 | 93 | 1007.2 |
| 20260510031803 | 52 | 89 | 2.0 | 7.0 | 0.00 | 0.56 | 0.00 | 94 | 1007.3 |
| 20260510031723 | 52 | 91 | 2.0 | 7.0 | 0.00 | 0.56 | 0.00 | 95 | 1007.3 |
| 20260510031602 | 52 | 99 | 3.0 | 9.0 | 0.00 | 0.56 | 0.00 | 95 | 1007.3 |
| 20260510031524 | 52 | 97 | 3.0 | 9.0 | 0.00 | 0.56 | 0.00 | 96 | 1007.1 |
| 20260510031423 | 52 | 97 | 3.0 | 9.0 | 0.00 | 0.56 | 0.00 | 96 | 1007.2 |
| 20260510031324 | 52 | 99 | 3.0 | 9.0 | 0.00 | 0.56 | 0.00 | 96 | 1007.3 |
| 20260510031202 | 52 | 99 | 3.0 | 9.0 | 0.00 | 0.56 | 0.00 | 97 | 1007.3 |
| 20260510031103 | 52 | 101 | 3.0 | 9.0 | 0.00 | 0.56 | 0.00 | 97 | 1007.2 |
| 20260510031002 | 52 | 99 | 3.0 | 9.0 | 0.00 | 0.56 | 0.00 | 98 | 1007.2 |
| 20260510030902 | 52 | 99 | 3.0 | 9.0 | 0.00 | 0.56 | 0.00 | 98 | 1007.2 |
| 20260510030803 | 51 | 100 | 3.0 | 9.0 | 0.00 | 0.56 | 0.00 | 98 | 1007.2 |
| 20260510030703 | 51 | 108 | 3.0 | 9.0 | 0.00 | 0.56 | 0.00 | 99 | 1007.2 |
| 20260510030603 | 51 | 113 | 3.0 | 9.0 | 0.00 | 0.56 | 0.00 | 99 | 1007.3 |
| 20260510030503 | 51 | 105 | 3.0 | 7.0 | 0.00 | 0.56 | 0.00 | 99 | 1007.2 |
| 20260510030402 | 51 | 113 | 3.0 | 7.0 | 0.00 | 0.56 | 0.00 | 99 | 1007.2 |
| 20260510030303 | 51 | 111 | 3.0 | 7.0 | 0.00 | 0.56 | 0.00 | 99 | 1007.3 |
| 20260510030202 | 51 | 106 | 3.0 | 7.0 | 0.00 | 0.56 | 0.00 | 99 | 1007.4 |
| 20260510030103 | 51 | 101 | 3.0 | 7.0 | 0.00 | 0.56 | 0.00 | 99 | 1007.3 |
| 20260510030003 | 51 | 105 | 3.0 | 7.0 | 0.00 | 0.56 | 0.00 | 99 | 1007.3 |
| 20260510025924 | 51 | 109 | 4.0 | 7.0 | 0.00 | 0.56 | 0.00 | 99 | 1007.4 |
| 20260510025802 | 51 | 108 | 4.0 | 7.0 | 0.00 | 0.56 | 0.00 | 99 | 1007.3 |
| 20260510025702 | 51 | 108 | 4.0 | 7.0 | 0.00 | 0.56 | 0.00 | 99 | 1007.3 |
| 20260510025603 | 51 | 111 | 4.0 | 7.0 | 0.00 | 0.56 | 0.00 | 99 | 1007.3 |
| 20260510025503 | 51 | 111 | 4.0 | 7.0 | 0.00 | 0.56 | 0.00 | 99 | 1007.3 |
| 20260510025403 | 51 | 107 | 4.0 | 7.0 | 0.00 | 0.56 | 0.00 | 99 | 1007.2 |
| 20260510025305 | 51 | 107 | 4.0 | 7.0 | 0.00 | 0.56 | 0.00 | 99 | 1007.2 |
| 20260510025224 | 51 | 105 | 4.0 | 7.0 | 0.00 | 0.56 | 0.00 | 99 | 1007.3 |
| 20260510025102 | 51 | 114 | 4.0 | 7.0 | 0.00 | 0.56 | 0.00 | 99 | 1007.4 |
| 20260510025003 | 51 | 118 | 4.0 | 7.0 | 0.00 | 0.56 | 0.00 | 99 | 1007.3 |
| 20260510024902 | 51 | 118 | 4.0 | 7.0 | 0.00 | 0.56 | 0.00 | 99 | 1007.3 |
| 20260510024803 | 51 | 118 | 4.0 | 7.0 | 0.00 | 0.56 | 0.00 | 99 | 1007.2 |
| 20260510024702 | 51 | 116 | 4.0 | 7.0 | 0.00 | 0.56 | 0.00 | 99 | 1007.4 |
| 20260510024602 | 51 | 109 | 4.0 | 7.0 | 0.00 | 0.56 | 0.00 | 99 | 1007.3 |
| 20260510024503 | 51 | 102 | 4.0 | 7.0 | 0.00 | 0.56 | 0.00 | 99 | 1007.3 |
| 20260510024403 | 51 | 96 | 4.0 | 7.0 | 0.00 | 0.56 | 0.00 | 99 | 1007.2 |
| 20260510024303 | 51 | 94 | 3.0 | 7.0 | 0.00 | 0.56 | 0.00 | 99 | 1007.4 |
| 20260510024203 | 51 | 102 | 4.0 | 7.0 | 0.00 | 0.56 | 0.00 | 99 | 1007.3 |
| 20260510024103 | 51 | 98 | 4.0 | 7.0 | 0.00 | 0.56 | 0.00 | 99 | 1007.4 |
| 20260510024003 | 51 | 101 | 4.0 | 7.0 | 0.00 | 0.56 | 0.00 | 99 | 1007.3 |
| 20260510023903 | 51 | 98 | 4.0 | 7.0 | 0.00 | 0.56 | 0.00 | 99 | 1007.5 |
| 20260510023803 | 51 | 98 | 4.0 | 7.0 | 0.00 | 0.56 | 0.00 | 99 | 1007.5 |
| 20260510023703 | 51 | 96 | 3.0 | 7.0 | 0.00 | 0.56 | 0.00 | 99 | 1007.3 |
| 20260510023624 | 51 | 100 | 3.0 | 7.0 | 0.00 | 0.56 | 0.00 | 99 | 1007.3 |
| 20260510023502 | 51 | 101 | 3.0 | 7.0 | 0.00 | 0.56 | 0.00 | 99 | 1007.4 |
| 20260510023424 | 51 | 97 | 3.0 | 7.0 | 0.00 | 0.56 | 0.00 | 99 | 1007.3 |
| 20260510023324 | 51 | 100 | 3.0 | 7.0 | 0.00 | 0.56 | 0.00 | 99 | 1007.3 |
| 20260510023202 | 51 | 98 | 3.0 | 7.0 | 0.00 | 0.56 | 0.00 | 99 | 1007.4 |
| 20260510023103 | 51 | 89 | 3.0 | 7.0 | 0.00 | 0.56 | 0.00 | 99 | 1007.2 |
| 20260510023003 | 51 | 80 | 2.0 | 6.0 | 0.00 | 0.56 | 0.00 | 99 | 1007.4 |
| 20260510022924 | 51 | 74 | 2.0 | 6.0 | 0.00 | 0.56 | 0.00 | 99 | 1007.3 |
| 20260510022803 | 51 | 70 | 2.0 | 6.0 | 0.00 | 0.56 | 0.00 | 99 | 1007.1 |
| 20260510022724 | 51 | 65 | 2.0 | 6.0 | 0.00 | 0.56 | 0.00 | 99 | 1007.4 |
| 20260510022603 | 51 | 58 | 2.0 | 6.0 | 0.00 | 0.56 | 0.00 | 99 | 1007.2 |
| 20260510022503 | 51 | 58 | 2.0 | 6.0 | 0.00 | 0.56 | 0.00 | 99 | 1007.3 |
| 20260510022403 | 51 | 59 | 1.0 | 3.0 | 0.00 | 0.56 | 0.00 | 99 | 1007.3 |
| 20260510022306 | 51 | 63 | 1.0 | 3.0 | 0.00 | 0.56 | 0.00 | 99 | 1007.4 |
| 20260510022203 | 51 | 64 | 2.0 | 4.0 | 0.00 | 0.56 | 0.00 | 99 | 1007.2 |
| 20260510022124 | 51 | 64 | 2.0 | 4.0 | 0.00 | 0.56 | 0.00 | 99 | 1007.2 |
| 20260510022002 | 51 | 66 | 2.0 | 4.0 | 0.00 | 0.56 | 0.00 | 99 | 1007.5 |
| 20260510021903 | 51 | 66 | 2.0 | 4.0 | 0.00 | 0.56 | 0.00 | 99 | 1007.4 |
| 20260510021803 | 51 | 64 | 2.0 | 4.0 | 0.00 | 0.56 | 0.00 | 99 | 1007.3 |
| 20260510021724 | 51 | 64 | 2.0 | 4.0 | 0.00 | 0.56 | 0.00 | 99 | 1007.4 |
| 20260510021603 | 51 | 67 | 2.0 | 4.0 | 0.00 | 0.56 | 0.00 | 99 | 1007.2 |
| 20260510021503 | 51 | 66 | 1.0 | 4.0 | 0.00 | 0.56 | 0.00 | 99 | 1007.4 |
| 20260510021402 | 51 | 67 | 1.0 | 4.0 | 0.00 | 0.56 | 0.00 | 99 | 1007.2 |
| 20260510021303 | 51 | 73 | 2.0 | 4.0 | 0.00 | 0.56 | 0.00 | 99 | 1007.3 |
| 20260510021203 | 51 | 69 | 1.0 | 4.0 | 0.00 | 0.56 | 0.00 | 99 | 1007.3 |
| 20260510021103 | 50 | 67 | 1.0 | 3.0 | 0.00 | 0.56 | 0.00 | 99 | 1007.2 |
| 20260510021003 | 50 | 67 | 1.0 | 3.0 | 0.00 | 0.56 | 0.00 | 99 | 1007.4 |
| 20260510020924 | 50 | 67 | 1.0 | 3.0 | 0.00 | 0.56 | 0.00 | 99 | 1007.4 |
| 20260510020824 | 50 | 67 | 1.0 | 3.0 | 0.00 | 0.56 | 0.00 | 99 | 1007.4 |
| 20260510020703 | 50 | 67 | 1.0 | 3.0 | 0.00 | 0.56 | 0.00 | 99 | 1007.4 |
| 20260510020603 | 50 | 62 | 1.0 | 3.0 | 0.00 | 0.56 | 0.00 | 99 | 1007.3 |
| 20260510020503 | 50 | 62 | 1.0 | 3.0 | 0.00 | 0.56 | 0.00 | 99 | 1007.3 |
| 20260510020403 | 50 | 63 | 1.0 | 3.0 | 0.00 | 0.56 | 0.00 | 99 | 1007.3 |
| 20260510020303 | 51 | 53 | 1.0 | 3.0 | 0.00 | 0.56 | 0.00 | 99 | 1007.4 |
| 20260510020203 | 51 | 53 | 1.0 | 3.0 | 0.00 | 0.56 | 0.00 | 99 | 1007.4 |
| 20260510020003 | 51 | 54 | 1.0 | 3.0 | 0.00 | 0.56 | 0.00 | 99 | 1007.4 |
| 20260510015903 | 51 | 57 | 2.0 | 4.0 | 0.00 | 0.56 | 0.00 | 99 | 1007.4 |
| 20260510015824 | 51 | 58 | 2.0 | 4.0 | 0.00 | 0.56 | 0.00 | 99 | 1007.4 |
| 20260510015703 | 51 | 60 | 2.0 | 4.0 | 0.00 | 0.56 | 0.00 | 99 | 1007.4 |
| 20260510015603 | 51 | 61 | 2.0 | 4.0 | 0.00 | 0.56 | 0.00 | 99 | 1007.3 |
| 20260510015503 | 51 | 61 | 2.0 | 4.0 | 0.00 | 0.56 | 0.00 | 99 | 1007.4 |
| 20260510015403 | 51 | 62 | 2.0 | 4.0 | 0.00 | 0.56 | 0.00 | 99 | 1007.4 |
| 20260510015306 | 51 | 62 | 2.0 | 4.0 | 0.00 | 0.56 | 0.00 | 99 | 1007.4 |
| 20260510015203 | 51 | 63 | 2.0 | 4.0 | 0.00 | 0.56 | 0.00 | 99 | 1007.5 |
| 20260510015124 | 51 | 62 | 2.0 | 4.0 | 0.00 | 0.56 | 0.00 | 99 | 1007.2 |
| 20260510015003 | 51 | 63 | 2.0 | 4.0 | 0.00 | 0.56 | 0.00 | 99 | 1007.4 |
| 20260510014924 | 51 | 63 | 2.0 | 4.0 | 0.00 | 0.56 | 0.00 | 99 | 1007.4 |
| 20260510014803 | 51 | 63 | 2.0 | 3.0 | 0.00 | 0.56 | 0.00 | 99 | 1007.5 |
| 20260510014703 | 51 | 65 | 2.0 | 3.0 | 0.00 | 0.56 | 0.00 | 99 | 1007.5 |
| 20260510014603 | 51 | 66 | 2.0 | 3.0 | 0.00 | 0.56 | 0.00 | 99 | 1007.6 |
| 20260510014503 | 51 | 66 | 2.0 | 3.0 | 0.00 | 0.56 | 0.00 | 99 | 1007.6 |
| 20260510014403 | 51 | 67 | 2.0 | 3.0 | 0.00 | 0.56 | 0.00 | 99 | 1007.4 |
| 20260510014324 | 51 | 69 | 2.0 | 3.0 | 0.00 | 0.56 | 0.00 | 99 | 1007.6 |
| 20260510014203 | 51 | 70 | 2.0 | 3.0 | 0.00 | 0.56 | 0.00 | 99 | 1007.6 |
| 20260510014103 | 51 | 70 | 2.0 | 3.0 | 0.00 | 0.56 | 0.00 | 99 | 1007.6 |
| 20260510014003 | 51 | 74 | 2.0 | 3.0 | 0.00 | 0.56 | 0.00 | 99 | 1007.5 |
| 20260510013903 | 51 | 74 | 2.0 | 3.0 | 0.00 | 0.56 | 0.00 | 99 | 1007.5 |
| 20260510013803 | 51 | 72 | 2.0 | 3.0 | 0.00 | 0.56 | 0.00 | 99 | 1007.4 |
| 20260510013703 | 51 | 74 | 2.0 | 3.0 | 0.00 | 0.56 | 0.00 | 99 | 1007.4 |
| 20260510013603 | 51 | 70 | 2.0 | 3.0 | 0.00 | 0.56 | 0.00 | 99 | 1007.7 |
| 20260510013503 | 51 | 69 | 2.0 | 3.0 | 0.00 | 0.56 | 0.00 | 99 | 1007.5 |
| 20260510013402 | 51 | 67 | 2.0 | 2.0 | 0.00 | 0.56 | 0.00 | 99 | 1007.5 |
| 20260510013303 | 51 | 66 | 2.0 | 2.0 | 0.00 | 0.56 | 0.00 | 99 | 1007.6 |
| 20260510013203 | 51 | 65 | 2.0 | 2.0 | 0.00 | 0.56 | 0.00 | 99 | 1007.6 |
| 20260510013124 | 51 | 65 | 2.0 | 2.0 | 0.00 | 0.56 | 0.00 | 99 | 1007.6 |
| 20260510013003 | 51 | 62 | 2.0 | 3.0 | 0.00 | 0.56 | 0.00 | 99 | 1007.6 |
| 20260510012903 | 51 | 63 | 2.0 | 3.0 | 0.00 | 0.56 | 0.00 | 99 | 1007.5 |
| 20260510012803 | 51 | 63 | 2.0 | 3.0 | 0.00 | 0.56 | 0.00 | 99 | 1007.7 |
| 20260510012703 | 51 | 60 | 2.0 | 3.0 | 0.00 | 0.56 | 0.00 | 99 | 1007.6 |
| 20260510012603 | 51 | 60 | 2.0 | 3.0 | 0.00 | 0.56 | 0.00 | 99 | 1007.6 |
| 20260510012524 | 51 | 61 | 2.0 | 3.0 | 0.00 | 0.56 | 0.00 | 99 | 1007.7 |
| 20260510012403 | 51 | 62 | 2.0 | 3.0 | 0.00 | 0.56 | 0.00 | 99 | 1007.7 |
| 20260510012306 | 51 | 70 | 2.0 | 4.0 | 0.00 | 0.56 | 0.00 | 99 | 1007.6 |
| 20260510012203 | 51 | 68 | 2.0 | 4.0 | 0.00 | 0.56 | 0.00 | 99 | 1007.6 |
| 20260510012103 | 51 | 69 | 2.0 | 4.0 | 0.00 | 0.56 | 0.00 | 99 | 1007.6 |
| 20260510012003 | 51 | 72 | 2.0 | 4.0 | 0.00 | 0.56 | 0.00 | 99 | 1007.6 |
| 20260510011903 | 51 | 76 | 2.0 | 6.0 | 0.00 | 0.56 | 0.00 | 99 | 1007.8 |
| 20260510011803 | 51 | 74 | 2.0 | 6.0 | 0.00 | 0.56 | 0.00 | 99 | 1007.6 |
| 20260510011703 | 51 | 75 | 2.0 | 6.0 | 0.00 | 0.56 | 0.00 | 99 | 1007.7 |
| 20260510011624 | 51 | 75 | 2.0 | 6.0 | 0.00 | 0.56 | 0.00 | 99 | 1007.8 |
| 20260510011503 | 51 | 75 | 2.0 | 6.0 | 0.00 | 0.56 | 0.00 | 99 | 1007.8 |
| 20260510011403 | 51 | 76 | 2.0 | 6.0 | 0.00 | 0.56 | 0.00 | 99 | 1007.7 |
| 20260510011303 | 51 | 73 | 2.0 | 6.0 | 0.00 | 0.56 | 0.00 | 99 | 1007.8 |
| 20260510011224 | 51 | 73 | 2.0 | 6.0 | 0.00 | 0.56 | 0.00 | 99 | 1007.6 |
| 20260510011124 | 51 | 73 | 2.0 | 6.0 | 0.00 | 0.56 | 0.00 | 99 | 1007.6 |
| 20260510011003 | 51 | 73 | 2.0 | 6.0 | 0.00 | 0.56 | 0.00 | 99 | 1007.8 |
| 20260510010903 | 51 | 70 | 2.0 | 3.0 | 0.00 | 0.56 | 0.00 | 99 | 1007.6 |
| 20260510010803 | 51 | 71 | 2.0 | 3.0 | 0.00 | 0.56 | 0.00 | 99 | 1007.6 |
| 20260510010703 | 51 | 70 | 2.0 | 3.0 | 0.00 | 0.56 | 0.00 | 99 | 1007.7 |
| 20260510010603 | 51 | 72 | 2.0 | 3.0 | 0.00 | 0.56 | 0.00 | 99 | 1007.8 |
| 20260510010524 | 51 | 72 | 2.0 | 3.0 | 0.00 | 0.56 | 0.00 | 99 | 1007.8 |
| 20260510010403 | 51 | 76 | 2.0 | 3.0 | 0.00 | 0.56 | 0.00 | 99 | 1007.7 |
| 20260510010303 | 51 | 74 | 2.0 | 3.0 | 0.00 | 0.56 | 0.00 | 99 | 1007.8 |
| 20260510010203 | 51 | 74 | 2.0 | 3.0 | 0.00 | 0.56 | 0.00 | 99 | 1007.8 |
| 20260510010003 | 51 | 83 | 2.0 | 4.0 | 0.00 | 0.56 | 0.00 | 99 | 1007.8 |
| 20260510005903 | 51 | 83 | 2.0 | 4.0 | 0.00 | 0.56 | 0.00 | 99 | 1007.7 |
| 20260510005803 | 51 | 82 | 2.0 | 4.0 | 0.00 | 0.56 | 0.00 | 99 | 1007.7 |
| 20260510005703 | 51 | 82 | 2.0 | 4.0 | 0.00 | 0.56 | 0.00 | 99 | 1007.7 |
| 20260510005603 | 51 | 82 | 2.0 | 4.0 | 0.00 | 0.56 | 0.00 | 99 | 1007.8 |
| 20260510005503 | 51 | 80 | 2.0 | 4.0 | 0.00 | 0.56 | 0.00 | 99 | 1007.9 |
| 20260510005403 | 51 | 76 | 2.0 | 4.0 | 0.00 | 0.56 | 0.00 | 99 | 1007.7 |
| 20260510005306 | 51 | 75 | 2.0 | 4.0 | 0.00 | 0.56 | 0.00 | 99 | 1007.7 |
| 20260510005203 | 51 | 74 | 2.0 | 4.0 | 0.00 | 0.56 | 0.00 | 99 | 1007.8 |
| 20260510005103 | 51 | 73 | 2.0 | 4.0 | 0.00 | 0.56 | 0.00 | 99 | 1007.9 |
| 20260510005004 | 51 | 66 | 2.0 | 3.0 | 0.00 | 0.56 | 0.00 | 99 | 1008.0 |
| 20260510004903 | 51 | 66 | 2.0 | 3.0 | 0.00 | 0.56 | 0.00 | 99 | 1008.0 |
| 20260510004803 | 51 | 61 | 2.0 | 3.0 | 0.00 | 0.56 | 0.00 | 99 | 1007.9 |
| 20260510004724 | 51 | 61 | 2.0 | 3.0 | 0.00 | 0.56 | 0.00 | 99 | 1007.7 |
| 20260510004603 | 51 | 60 | 2.0 | 3.0 | 0.00 | 0.56 | 0.00 | 99 | 1007.9 |
| 20260510004503 | 51 | 61 | 2.0 | 3.0 | 0.00 | 0.56 | 0.00 | 99 | 1007.9 |
| 20260510004403 | 51 | 60 | 2.0 | 3.0 | 0.00 | 0.56 | 0.00 | 99 | 1007.9 |
| 20260510004303 | 51 | 62 | 2.0 | 3.0 | 0.00 | 0.56 | 0.00 | 99 | 1007.9 |
| 20260510004203 | 51 | 66 | 2.0 | 3.0 | 0.00 | 0.56 | 0.00 | 99 | 1007.8 |
| 20260510004103 | 51 | 69 | 2.0 | 3.0 | 0.00 | 0.56 | 0.00 | 99 | 1007.7 |
| 20260510004003 | 51 | 67 | 2.0 | 3.0 | 0.00 | 0.56 | 0.00 | 99 | 1007.8 |
| 20260510003924 | 51 | 67 | 2.0 | 3.0 | 0.00 | 0.56 | 0.00 | 99 | 1007.8 |
| 20260510003803 | 51 | 69 | 2.0 | 3.0 | 0.00 | 0.56 | 0.00 | 99 | 1007.9 |
| 20260510003703 | 51 | 70 | 2.0 | 3.0 | 0.00 | 0.56 | 0.00 | 99 | 1008.0 |
| 20260510003603 | 51 | 69 | 2.0 | 3.0 | 0.00 | 0.56 | 0.00 | 99 | 1007.7 |
| 20260510003503 | 51 | 69 | 2.0 | 3.0 | 0.00 | 0.56 | 0.00 | 99 | 1007.8 |
| 20260510003403 | 51 | 72 | 2.0 | 3.0 | 0.00 | 0.56 | 0.00 | 99 | 1007.7 |
| 20260510003303 | 51 | 71 | 2.0 | 3.0 | 0.00 | 0.56 | 0.00 | 99 | 1007.8 |
| 20260510003203 | 51 | 68 | 2.0 | 3.0 | 0.00 | 0.56 | 0.00 | 99 | 1007.9 |
| 20260510003103 | 51 | 64 | 2.0 | 3.0 | 0.00 | 0.56 | 0.00 | 99 | 1007.7 |
| 20260510003003 | 51 | 63 | 2.0 | 3.0 | 0.00 | 0.56 | 0.00 | 99 | 1007.8 |
| 20260510002903 | 51 | 63 | 2.0 | 3.0 | 0.00 | 0.56 | 0.00 | 99 | 1007.8 |
| 20260510002803 | 51 | 63 | 2.0 | 3.0 | 0.00 | 0.56 | 0.00 | 99 | 1007.9 |
| 20260510002703 | 51 | 63 | 2.0 | 3.0 | 0.00 | 0.56 | 0.00 | 99 | 1008.0 |
| 20260510002603 | 51 | 63 | 2.0 | 3.0 | 0.00 | 0.56 | 0.00 | 99 | 1007.9 |
| 20260510002503 | 51 | 62 | 1.0 | 3.0 | 0.00 | 0.56 | 0.00 | 99 | 1008.1 |
| 20260510002403 | 51 | 62 | 1.0 | 3.0 | 0.00 | 0.56 | 0.00 | 99 | 1007.9 |
| 20260510002306 | 51 | 59 | 1.0 | 3.0 | 0.00 | 0.56 | 0.00 | 99 | 1007.8 |
| 20260510002203 | 51 | 57 | 1.0 | 2.0 | 0.00 | 0.56 | 0.00 | 99 | 1007.9 |
| 20260510002103 | 51 | 56 | 1.0 | 2.0 | 0.00 | 0.56 | 0.00 | 99 | 1008.0 |
| 20260510002003 | 51 | 56 | 1.0 | 2.0 | 0.00 | 0.56 | 0.00 | 99 | 1008.0 |
| 20260510001903 | 51 | 53 | 1.0 | 2.0 | 0.00 | 0.56 | 0.00 | 99 | 1008.0 |
| 20260510001803 | 51 | 55 | 1.0 | 2.0 | 0.00 | 0.56 | 0.00 | 99 | 1007.8 |
| 20260510001703 | 51 | 54 | 1.0 | 2.0 | 0.00 | 0.56 | 0.00 | 99 | 1008.0 |
| 20260510001624 | 51 | 54 | 1.0 | 2.0 | 0.00 | 0.56 | 0.00 | 99 | 1008.0 |
| 20260510001503 | 51 | 56 | 1.0 | 2.0 | 0.00 | 0.56 | 0.00 | 99 | 1008.0 |
| 20260510001403 | 51 | 57 | 1.0 | 2.0 | 0.00 | 0.56 | 0.00 | 99 | 1007.9 |
| 20260510001324 | 51 | 57 | 1.0 | 2.0 | 0.00 | 0.56 | 0.00 | 99 | 1007.9 |
| 20260510001203 | 51 | 67 | 1.0 | 4.0 | 0.00 | 0.56 | 0.00 | 99 | 1008.2 |
| 20260510001103 | 51 | 69 | 2.0 | 4.0 | 0.00 | 0.56 | 0.00 | 99 | 1008.1 |
| 20260510001003 | 51 | 69 | 2.0 | 4.0 | 0.00 | 0.56 | 0.00 | 99 | 1007.9 |
| 20260510000903 | 51 | 68 | 2.0 | 4.0 | 0.00 | 0.56 | 0.00 | 99 | 1007.8 |
| 20260510000803 | 51 | 68 | 2.0 | 4.0 | 0.00 | 0.56 | 0.00 | 99 | 1008.0 |
| 20260510000724 | 51 | 68 | 2.0 | 4.0 | 0.00 | 0.56 | 0.00 | 99 | 1007.8 |
| 20260510000624 | 51 | 69 | 2.0 | 4.0 | 0.00 | 0.56 | 0.00 | 99 | 1007.8 |
| 20260510000503 | 51 | 68 | 2.0 | 4.0 | 0.00 | 0.56 | 0.00 | 99 | 1008.0 |
| 20260510000403 | 51 | 69 | 2.0 | 4.0 | 0.00 | 0.56 | 0.00 | 99 | 1007.9 |
| 20260510000304 | 51 | 70 | 2.0 | 4.0 | 0.00 | 0.56 | 0.00 | 99 | 1007.9 |
| 20260510000226 | 51 | 67 | 2.0 | 3.0 | 0.00 | 0.56 | 0.00 | 99 | 1007.9 |
| 20260510000003 | 51 | 64 | 2.0 | 3.0 | 0.00 | 0.56 | 0.00 | 99 | 1007.9 |
| 20260509235924 | 51 | 64 | 2.0 | 3.0 | 0.00 | 0.56 | 0.00 | 99 | 1007.9 |
| 20260509235824 | 51 | 65 | 1.0 | 3.0 | 0.00 | 0.56 | 0.00 | 99 | 1007.9 |
| 20260509235703 | 51 | 68 | 2.0 | 3.0 | 0.00 | 0.56 | 0.00 | 99 | 1007.8 |
| 20260509235603 | 51 | 68 | 2.0 | 3.0 | 0.00 | 0.56 | 0.00 | 99 | 1007.9 |
| 20260509235503 | 51 | 68 | 2.0 | 3.0 | 0.00 | 0.56 | 0.00 | 99 | 1007.9 |
| 20260509235403 | 51 | 68 | 2.0 | 3.0 | 0.00 | 0.56 | 0.00 | 99 | 1007.9 |
| 20260509235306 | 51 | 67 | 1.0 | 3.0 | 0.00 | 0.56 | 0.00 | 99 | 1008.0 |
| 20260509235203 | 51 | 67 | 1.0 | 3.0 | 0.00 | 0.56 | 0.00 | 99 | 1008.0 |
| 20260509235124 | 51 | 63 | 1.0 | 3.0 | 0.00 | 0.56 | 0.00 | 99 | 1007.9 |
| 20260509235003 | 51 | 64 | 1.0 | 3.0 | 0.00 | 0.56 | 0.00 | 99 | 1007.9 |
| 20260509234903 | 51 | 64 | 1.0 | 3.0 | 0.00 | 0.56 | 0.00 | 99 | 1008.0 |
| 20260509234803 | 51 | 65 | 1.0 | 3.0 | 0.00 | 0.56 | 0.00 | 99 | 1008.0 |
| 20260509234703 | 51 | 59 | 1.0 | 3.0 | 0.00 | 0.56 | 0.00 | 99 | 1008.0 |
| 20260509234603 | 51 | 59 | 1.0 | 3.0 | 0.00 | 0.56 | 0.00 | 99 | 1008.0 |
| 20260509234503 | 51 | 58 | 1.0 | 3.0 | 0.00 | 0.56 | 0.00 | 99 | 1008.0 |
| 20260509234424 | 51 | 58 | 1.0 | 3.0 | 0.00 | 0.56 | 0.00 | 99 | 1008.0 |
| 20260509234303 | 51 | 59 | 1.0 | 3.0 | 0.00 | 0.56 | 0.00 | 99 | 1008.1 |
| 20260509234224 | 51 | 59 | 1.0 | 3.0 | 0.00 | 0.56 | 0.00 | 99 | 1008.1 |
| 20260509234103 | 51 | 56 | 1.0 | 3.0 | 0.00 | 0.56 | 0.00 | 99 | 1008.0 |
| 20260509234003 | 51 | 54 | 1.0 | 3.0 | 0.00 | 0.56 | 0.00 | 99 | 1008.1 |
| 20260509233924 | 51 | 54 | 1.0 | 3.0 | 0.00 | 0.56 | 0.00 | 99 | 1007.9 |
| 20260509233803 | 51 | 52 | 1.0 | 3.0 | 0.00 | 0.56 | 0.00 | 99 | 1007.9 |
| 20260509233703 | 51 | 52 | 1.0 | 3.0 | 0.00 | 0.56 | 0.00 | 99 | 1008.0 |
| 20260509233603 | 51 | 54 | 1.0 | 2.0 | 0.00 | 0.56 | 0.00 | 99 | 1007.9 |
| 20260509233503 | 51 | 53 | 1.0 | 2.0 | 0.00 | 0.56 | 0.00 | 99 | 1008.1 |
| 20260509233403 | 51 | 53 | 1.0 | 2.0 | 0.00 | 0.56 | 0.00 | 99 | 1008.0 |
| 20260509233303 | 51 | 53 | 1.0 | 2.0 | 0.00 | 0.56 | 0.00 | 99 | 1008.0 |
| 20260509233203 | 51 | 53 | 1.0 | 2.0 | 0.00 | 0.56 | 0.00 | 99 | 1007.9 |
| 20260509233103 | 51 | 53 | 1.0 | 2.0 | 0.00 | 0.56 | 0.00 | 99 | 1008.0 |
| 20260509233003 | 51 | 56 | 1.0 | 2.0 | 0.00 | 0.56 | 0.00 | 99 | 1008.0 |
| 20260509232903 | 51 | 56 | 1.0 | 2.0 | 0.00 | 0.56 | 0.00 | 99 | 1008.0 |
| 20260509232824 | 51 | 57 | 1.0 | 2.0 | 0.00 | 0.56 | 0.00 | 99 | 1008.0 |
| 20260509232703 | 51 | 63 | 1.0 | 3.0 | 0.00 | 0.56 | 0.00 | 99 | 1007.9 |
| 20260509232603 | 51 | 62 | 2.0 | 4.0 | 0.00 | 0.56 | 0.00 | 99 | 1007.9 |
| 20260509232524 | 51 | 62 | 2.0 | 4.0 | 0.00 | 0.56 | 0.00 | 99 | 1008.0 |
| 20260509232403 | 52 | 62 | 1.0 | 4.0 | 0.00 | 0.56 | 0.00 | 99 | 1007.9 |
| 20260509232324 | 52 | 65 | 2.0 | 4.0 | 0.00 | 0.56 | 0.00 | 99 | 1007.9 |
| 20260509232203 | 52 | 66 | 2.0 | 6.0 | 0.00 | 0.56 | 0.00 | 99 | 1008.1 |
| 20260509232103 | 52 | 71 | 2.0 | 6.0 | 0.00 | 0.56 | 0.00 | 99 | 1007.9 |
| 20260509232003 | 52 | 70 | 2.0 | 6.0 | 0.00 | 0.56 | 0.00 | 99 | 1007.8 |
| 20260509231924 | 52 | 70 | 2.0 | 6.0 | 0.00 | 0.56 | 0.00 | 99 | 1007.9 |
| 20260509231803 | 52 | 72 | 2.0 | 6.0 | 0.00 | 0.56 | 0.00 | 99 | 1008.0 |
| 20260509231703 | 52 | 68 | 2.0 | 6.0 | 0.00 | 0.56 | 0.00 | 99 | 1008.0 |
| 20260509231603 | 52 | 75 | 2.0 | 6.0 | 0.00 | 0.56 | 0.00 | 99 | 1007.9 |
| 20260509231503 | 52 | 81 | 2.0 | 6.0 | 0.00 | 0.56 | 0.00 | 99 | 1007.9 |
| 20260509231403 | 52 | 82 | 2.0 | 6.0 | 0.00 | 0.56 | 0.00 | 99 | 1007.9 |
| 20260509231324 | 52 | 82 | 2.0 | 6.0 | 0.00 | 0.56 | 0.00 | 99 | 1007.9 |
| 20260509231203 | 52 | 83 | 2.0 | 6.0 | 0.00 | 0.56 | 0.00 | 99 | 1008.0 |
| 20260509231103 | 52 | 86 | 2.0 | 6.0 | 0.00 | 0.56 | 0.00 | 99 | 1007.9 |
| 20260509231003 | 52 | 85 | 2.0 | 6.0 | 0.00 | 0.56 | 0.00 | 99 | 1008.0 |
| 20260509230903 | 52 | 87 | 2.0 | 6.0 | 0.00 | 0.56 | 0.00 | 99 | 1007.9 |
| 20260509230803 | 52 | 87 | 2.0 | 6.0 | 0.00 | 0.56 | 0.00 | 99 | 1007.9 |
| 20260509230703 | 52 | 83 | 2.0 | 6.0 | 0.00 | 0.56 | 0.00 | 99 | 1008.2 |
| 20260509230603 | 52 | 83 | 2.0 | 6.0 | 0.00 | 0.56 | 0.00 | 99 | 1008.0 |
| 20260509230503 | 52 | 77 | 2.0 | 6.0 | 0.00 | 0.56 | 0.00 | 99 | 1007.9 |
| 20260509230403 | 52 | 71 | 2.0 | 4.0 | 0.00 | 0.56 | 0.00 | 99 | 1007.8 |
| 20260509230303 | 52 | 70 | 2.0 | 4.0 | 0.00 | 0.56 | 0.00 | 99 | 1007.8 |
| 20260509230203 | 52 | 67 | 2.0 | 4.0 | 0.00 | 0.56 | 0.00 | 99 | 1007.9 |
| 20260509230003 | 51 | 61 | 2.0 | 4.0 | 0.00 | 0.56 | 0.00 | 99 | 1007.6 |
| 20260509225903 | 51 | 57 | 1.0 | 4.0 | 0.00 | 0.56 | 0.00 | 99 | 1007.9 |
| 20260509225803 | 51 | 55 | 1.0 | 4.0 | 0.00 | 0.56 | 0.00 | 99 | 1007.9 |
| 20260509225703 | 51 | 57 | 1.0 | 3.0 | 0.00 | 0.56 | 0.00 | 99 | 1008.0 |
| 20260509225603 | 51 | 57 | 1.0 | 3.0 | 0.00 | 0.56 | 0.00 | 99 | 1008.0 |
| 20260509225503 | 51 | 58 | 1.0 | 3.0 | 0.00 | 0.56 | 0.00 | 99 | 1007.8 |
| 20260509225403 | 51 | 60 | 1.0 | 2.0 | 0.00 | 0.56 | 0.00 | 99 | 1007.9 |
| 20260509225324 | 52 | 59 | 1.0 | 2.0 | 0.00 | 0.56 | 0.00 | 99 | 1007.9 |
| 20260509225203 | 52 | 56 | 0.0 | 2.0 | 0.00 | 0.56 | 0.00 | 99 | 1008.0 |
| 20260509225103 | 52 | 57 | 0.0 | 2.0 | 0.00 | 0.56 | 0.00 | 99 | 1007.9 |
| 20260509225003 | 51 | 55 | 0.0 | 2.0 | 0.00 | 0.56 | 0.00 | 99 | 1007.8 |
| 20260509224903 | 51 | 50 | 0.0 | 2.0 | 0.00 | 0.56 | 0.00 | 99 | 1007.7 |
| 20260509224824 | 51 | 0 | 0.0 | 0.0 | 0.00 | 0.56 | 0.00 | 99 | 1007.9 |
| 20260509224724 | 51 | 48 | 0.0 | 1.0 | 0.00 | 0.56 | 0.00 | 99 | 1007.9 |
| 20260509224603 | 51 | 51 | 0.0 | 1.0 | 0.00 | 0.56 | 0.00 | 99 | 1007.9 |
| 20260509224503 | 51 | 51 | 0.0 | 1.0 | 0.00 | 0.56 | 0.00 | 99 | 1007.9 |
| 20260509224403 | 51 | 51 | 0.0 | 1.0 | 0.00 | 0.56 | 0.00 | 99 | 1007.9 |
| 20260509224303 | 51 | 51 | 0.0 | 1.0 | 0.00 | 0.56 | 0.00 | 99 | 1008.0 |
| 20260509224224 | 51 | 51 | 0.0 | 1.0 | 0.00 | 0.56 | 0.00 | 99 | 1008.0 |
| 20260509224103 | 51 | 54 | 0.0 | 2.0 | 0.00 | 0.56 | 0.00 | 99 | 1007.9 |
| 20260509224024 | 51 | 54 | 0.0 | 2.0 | 0.00 | 0.56 | 0.00 | 99 | 1007.9 |
| 20260509223903 | 52 | 53 | 1.0 | 2.0 | 0.00 | 0.56 | 0.00 | 99 | 1007.9 |
| 20260509223803 | 52 | 53 | 1.0 | 2.0 | 0.00 | 0.56 | 0.00 | 99 | 1007.8 |
| 20260509223703 | 52 | 54 | 1.0 | 2.0 | 0.00 | 0.56 | 0.00 | 99 | 1007.8 |
| 20260509223603 | 52 | 55 | 1.0 | 2.0 | 0.00 | 0.56 | 0.00 | 99 | 1007.9 |
| 20260509223503 | 52 | 54 | 1.0 | 2.0 | 0.00 | 0.56 | 0.00 | 99 | 1007.8 |
| 20260509223403 | 52 | 59 | 1.0 | 3.0 | 0.00 | 0.56 | 0.00 | 99 | 1007.9 |
| 20260509223303 | 52 | 59 | 2.0 | 3.0 | 0.00 | 0.56 | 0.00 | 99 | 1007.8 |
| 20260509223203 | 52 | 59 | 2.0 | 3.0 | 0.00 | 0.56 | 0.00 | 99 | 1007.8 |
| 20260509223103 | 52 | 59 | 2.0 | 3.0 | 0.00 | 0.56 | 0.00 | 99 | 1007.9 |
| 20260509223003 | 52 | 58 | 2.0 | 3.0 | 0.00 | 0.56 | 0.00 | 99 | 1008.0 |
| 20260509222924 | 52 | 59 | 2.0 | 3.0 | 0.00 | 0.56 | 0.00 | 99 | 1007.9 |
| 20260509222803 | 52 | 63 | 2.0 | 3.0 | 0.00 | 0.56 | 0.00 | 99 | 1007.8 |
| 20260509222703 | 52 | 62 | 2.0 | 3.0 | 0.00 | 0.56 | 0.00 | 99 | 1007.9 |
| 20260509222603 | 52 | 61 | 2.0 | 3.0 | 0.00 | 0.56 | 0.00 | 99 | 1007.8 |
| 20260509222503 | 52 | 62 | 1.0 | 3.0 | 0.00 | 0.56 | 0.00 | 99 | 1007.9 |
| 20260509222403 | 52 | 58 | 1.0 | 3.0 | 0.00 | 0.56 | 0.00 | 99 | 1007.8 |
| 20260509222306 | 52 | 58 | 1.0 | 3.0 | 0.00 | 0.56 | 0.00 | 99 | 1007.8 |
| 20260509222203 | 52 | 59 | 1.0 | 3.0 | 0.00 | 0.56 | 0.00 | 99 | 1007.9 |
| 20260509222103 | 52 | 59 | 1.0 | 3.0 | 0.00 | 0.56 | 0.00 | 99 | 1007.9 |
| 20260509222003 | 52 | 59 | 1.0 | 3.0 | 0.00 | 0.56 | 0.00 | 99 | 1007.9 |
| 20260509221903 | 52 | 60 | 1.0 | 3.0 | 0.00 | 0.56 | 0.00 | 99 | 1007.9 |
| 20260509221803 | 52 | 59 | 1.0 | 3.0 | 0.00 | 0.56 | 0.00 | 99 | 1007.8 |
| 20260509221703 | 52 | 51 | 0.0 | 2.0 | 0.00 | 0.56 | 0.00 | 99 | 1007.8 |
| 20260509221603 | 52 | 51 | 0.0 | 2.0 | 0.00 | 0.56 | 0.00 | 99 | 1007.8 |
| 20260509221503 | 52 | 50 | 0.0 | 2.0 | 0.00 | 0.56 | 0.00 | 99 | 1007.9 |
| 20260509221403 | 52 | 51 | 0.0 | 2.0 | 0.00 | 0.56 | 0.00 | 99 | 1007.9 |
| 20260509221303 | 52 | 50 | 0.0 | 2.0 | 0.00 | 0.56 | 0.00 | 99 | 1007.8 |
| 20260509221203 | 52 | 50 | 0.0 | 2.0 | 0.00 | 0.56 | 0.00 | 99 | 1007.7 |
| 20260509221103 | 52 | 50 | 0.0 | 2.0 | 0.00 | 0.56 | 0.00 | 99 | 1007.8 |
| 20260509221003 | 52 | 50 | 0.0 | 2.0 | 0.00 | 0.56 | 0.00 | 99 | 1007.8 |
| 20260509220903 | 52 | 50 | 0.0 | 2.0 | 0.00 | 0.56 | 0.00 | 99 | 1007.9 |
| 20260509220803 | 52 | 50 | 0.0 | 2.0 | 0.00 | 0.56 | 0.00 | 99 | 1007.7 |
| 20260509220703 | 52 | 50 | 0.0 | 2.0 | 0.00 | 0.56 | 0.00 | 99 | 1007.8 |
| 20260509220603 | 52 | 49 | 0.0 | 1.0 | 0.00 | 0.56 | 0.00 | 99 | 1007.8 |
| 20260509220503 | 52 | 50 | 0.0 | 2.0 | 0.00 | 0.56 | 0.00 | 99 | 1007.8 |
| 20260509220403 | 52 | 50 | 0.0 | 2.0 | 0.00 | 0.56 | 0.00 | 99 | 1007.7 |
| 20260509220303 | 52 | 50 | 0.0 | 2.0 | 0.00 | 0.56 | 0.00 | 99 | 1007.7 |
| 20260509220203 | 52 | 50 | 0.0 | 2.0 | 0.00 | 0.56 | 0.00 | 99 | 1007.8 |
| 20260509220004 | 52 | 50 | 1.0 | 2.0 | 0.00 | 0.56 | 0.00 | 99 | 1007.8 |
| 20260509215903 | 52 | 50 | 1.0 | 2.0 | 0.00 | 0.56 | 0.56 | 99 | 1007.6 |
| 20260509215803 | 52 | 50 | 1.0 | 2.0 | 0.00 | 0.56 | 0.56 | 99 | 1007.6 |
| 20260509215703 | 53 | 51 | 1.0 | 2.0 | 0.00 | 0.56 | 0.56 | 99 | 1007.8 |
| 20260509215603 | 53 | 51 | 1.0 | 2.0 | 0.00 | 0.56 | 0.56 | 99 | 1007.8 |
| 20260509215524 | 53 | 51 | 1.0 | 2.0 | 0.00 | 0.56 | 0.56 | 99 | 1007.6 |
| 20260509215403 | 53 | 51 | 0.0 | 1.0 | 0.00 | 0.56 | 0.56 | 99 | 1007.8 |
| 20260509215305 | 53 | 51 | 0.0 | 1.0 | 0.00 | 0.56 | 0.56 | 99 | 1007.7 |
| 20260509215203 | 53 | 51 | 0.0 | 1.0 | 0.01 | 0.56 | 0.56 | 99 | 1007.8 |
| 20260509215103 | 53 | 53 | 0.0 | 2.0 | 0.01 | 0.56 | 0.56 | 99 | 1007.7 |
| 20260509215024 | 53 | 53 | 0.0 | 2.0 | 0.01 | 0.56 | 0.56 | 99 | 1007.7 |
| 20260509214903 | 53 | 54 | 1.0 | 2.0 | 0.01 | 0.56 | 0.56 | 99 | 1007.8 |
| 20260509214824 | 53 | 54 | 1.0 | 2.0 | 0.01 | 0.56 | 0.56 | 99 | 1007.8 |
| 20260509214703 | 53 | 55 | 1.0 | 2.0 | 0.01 | 0.56 | 0.56 | 99 | 1007.8 |
| 20260509214603 | 53 | 55 | 1.0 | 2.0 | 0.01 | 0.56 | 0.56 | 99 | 1007.7 |
| 20260509214504 | 53 | 55 | 1.0 | 2.0 | 0.01 | 0.56 | 0.56 | 99 | 1007.7 |
| 20260509214403 | 53 | 55 | 1.0 | 2.0 | 0.01 | 0.56 | 0.56 | 99 | 1007.8 |
| 20260509214303 | 53 | 55 | 1.0 | 2.0 | 0.01 | 0.56 | 0.56 | 99 | 1007.6 |
| 20260509214203 | 53 | 55 | 1.0 | 2.0 | 0.01 | 0.56 | 0.56 | 99 | 1007.9 |
| 20260509214103 | 53 | 56 | 1.0 | 2.0 | 0.01 | 0.56 | 0.56 | 99 | 1007.6 |
| 20260509214024 | 53 | 55 | 1.0 | 2.0 | 0.01 | 0.56 | 0.56 | 99 | 1007.8 |
| 20260509213924 | 53 | 56 | 1.0 | 2.0 | 0.01 | 0.56 | 0.56 | 99 | 1007.7 |
| 20260509213803 | 53 | 57 | 1.0 | 2.0 | 0.01 | 0.56 | 0.56 | 99 | 1007.8 |
| 20260509213703 | 53 | 58 | 2.0 | 2.0 | 0.01 | 0.56 | 0.56 | 99 | 1007.7 |
| 20260509213603 | 53 | 58 | 2.0 | 2.0 | 0.01 | 0.56 | 0.56 | 99 | 1007.8 |
| 20260509213503 | 53 | 58 | 2.0 | 2.0 | 0.01 | 0.56 | 0.56 | 99 | 1007.6 |
| 20260509213403 | 53 | 58 | 2.0 | 2.0 | 0.01 | 0.56 | 0.56 | 99 | 1007.8 |
| 20260509213303 | 53 | 59 | 2.0 | 2.0 | 0.01 | 0.56 | 0.56 | 99 | 1007.8 |
| 20260509213203 | 53 | 59 | 2.0 | 2.0 | 0.01 | 0.56 | 0.56 | 99 | 1007.8 |
| 20260509213103 | 53 | 60 | 2.0 | 2.0 | 0.01 | 0.56 | 0.56 | 99 | 1007.6 |
| 20260509213003 | 53 | 59 | 2.0 | 2.0 | 0.01 | 0.56 | 0.56 | 99 | 1007.8 |
| 20260509212903 | 53 | 59 | 2.0 | 2.0 | 0.01 | 0.56 | 0.56 | 99 | 1007.9 |
| 20260509212803 | 53 | 65 | 2.0 | 3.0 | 0.01 | 0.56 | 0.56 | 99 | 1007.8 |
| 20260509212703 | 53 | 64 | 2.0 | 3.0 | 0.01 | 0.56 | 0.56 | 99 | 1007.9 |
| 20260509212603 | 53 | 63 | 2.0 | 3.0 | 0.01 | 0.56 | 0.56 | 99 | 1007.9 |
| 20260509212503 | 53 | 63 | 2.0 | 3.0 | 0.01 | 0.56 | 0.56 | 99 | 1007.9 |
| 20260509212403 | 53 | 63 | 2.0 | 3.0 | 0.01 | 0.56 | 0.56 | 99 | 1008.1 |
| 20260509212305 | 53 | 63 | 1.0 | 3.0 | 0.01 | 0.56 | 0.56 | 99 | 1007.8 |
| 20260509212224 | 53 | 62 | 1.0 | 3.0 | 0.01 | 0.56 | 0.56 | 99 | 1008.0 |
| 20260509212103 | 53 | 62 | 1.0 | 3.0 | 0.01 | 0.56 | 0.56 | 99 | 1007.8 |
| 20260509212024 | 53 | 62 | 1.0 | 3.0 | 0.01 | 0.56 | 0.56 | 99 | 1007.8 |
| 20260509211924 | 53 | 61 | 1.0 | 3.0 | 0.01 | 0.56 | 0.56 | 99 | 1008.0 |
| 20260509211824 | 53 | 61 | 1.0 | 3.0 | 0.01 | 0.56 | 0.56 | 99 | 1007.9 |
| 20260509211724 | 53 | 52 | 1.0 | 2.0 | 0.01 | 0.56 | 0.56 | 99 | 1007.9 |
| 20260509211603 | 53 | 52 | 1.0 | 2.0 | 0.01 | 0.56 | 0.56 | 99 | 1007.9 |
| 20260509211503 | 53 | 53 | 1.0 | 2.0 | 0.01 | 0.56 | 0.56 | 99 | 1007.9 |
| 20260509211403 | 53 | 53 | 1.0 | 2.0 | 0.01 | 0.56 | 0.56 | 99 | 1008.0 |
| 20260509211303 | 53 | 54 | 1.0 | 2.0 | 0.01 | 0.56 | 0.56 | 99 | 1007.9 |
| 20260509211203 | 53 | 55 | 1.0 | 2.0 | 0.01 | 0.56 | 0.56 | 99 | 1007.9 |
| 20260509211103 | 53 | 55 | 1.0 | 2.0 | 0.01 | 0.56 | 0.56 | 99 | 1008.0 |
| 20260509211024 | 53 | 55 | 1.0 | 2.0 | 0.01 | 0.56 | 0.56 | 99 | 1007.7 |
| 20260509210903 | 53 | 55 | 1.0 | 3.0 | 0.01 | 0.56 | 0.56 | 99 | 1008.0 |
| 20260509210803 | 53 | 67 | 2.0 | 4.0 | 0.01 | 0.56 | 0.56 | 99 | 1007.8 |
| 20260509210703 | 53 | 66 | 2.0 | 4.0 | 0.01 | 0.56 | 0.56 | 99 | 1007.8 |
| 20260509210603 | 53 | 67 | 2.0 | 4.0 | 0.01 | 0.56 | 0.56 | 99 | 1007.7 |
| 20260509210503 | 53 | 68 | 2.0 | 4.0 | 0.01 | 0.56 | 0.56 | 99 | 1007.7 |
| 20260509210424 | 53 | 68 | 2.0 | 4.0 | 0.01 | 0.56 | 0.56 | 99 | 1007.7 |
| 20260509210303 | 53 | 68 | 2.0 | 4.0 | 0.01 | 0.56 | 0.56 | 99 | 1007.9 |
| 20260509210203 | 53 | 74 | 2.0 | 4.0 | 0.01 | 0.56 | 0.56 | 99 | 1007.8 |
| 20260509210003 | 53 | 74 | 1.0 | 4.0 | 0.01 | 0.56 | 0.56 | 99 | 1007.7 |
| 20260509205903 | 53 | 75 | 1.0 | 4.0 | 0.01 | 0.56 | 0.56 | 99 | 1007.8 |
| 20260509205803 | 53 | 77 | 1.0 | 4.0 | 0.01 | 0.56 | 0.56 | 99 | 1007.7 |
| 20260509205703 | 53 | 71 | 1.0 | 3.0 | 0.01 | 0.56 | 0.56 | 99 | 1007.8 |
| 20260509205603 | 53 | 73 | 1.0 | 3.0 | 0.01 | 0.56 | 0.56 | 99 | 1007.6 |
| 20260509205503 | 53 | 71 | 1.0 | 3.0 | 0.01 | 0.56 | 0.56 | 99 | 1007.7 |
| 20260509205403 | 53 | 70 | 1.0 | 3.0 | 0.01 | 0.56 | 0.56 | 99 | 1007.6 |
| 20260509205306 | 53 | 70 | 1.0 | 3.0 | 0.01 | 0.56 | 0.56 | 99 | 1007.6 |
| 20260509205203 | 53 | 69 | 1.0 | 3.0 | 0.00 | 0.55 | 0.55 | 99 | 1007.5 |
| 20260509205103 | 53 | 61 | 1.0 | 3.0 | 0.00 | 0.55 | 0.55 | 99 | 1007.7 |
| 20260509205003 | 53 | 61 | 1.0 | 3.0 | 0.00 | 0.55 | 0.55 | 99 | 1007.7 |
| 20260509204903 | 53 | 62 | 1.0 | 3.0 | 0.00 | 0.55 | 0.55 | 99 | 1007.7 |
| 20260509204804 | 53 | 62 | 1.0 | 3.0 | 0.00 | 0.55 | 0.55 | 99 | 1007.7 |
| 20260509204703 | 53 | 56 | 1.0 | 3.0 | 0.00 | 0.55 | 0.55 | 99 | 1007.6 |
| 20260509204603 | 53 | 50 | 1.0 | 3.0 | 0.00 | 0.55 | 0.55 | 99 | 1007.5 |
| 20260509204503 | 53 | 50 | 1.0 | 3.0 | 0.00 | 0.55 | 0.55 | 99 | 1007.5 |
| 20260509204403 | 53 | 51 | 0.0 | 2.0 | 0.00 | 0.55 | 0.55 | 99 | 1007.6 |
| 20260509204303 | 53 | 52 | 0.0 | 2.0 | 0.00 | 0.55 | 0.55 | 99 | 1007.6 |
| 20260509204203 | 53 | 58 | 1.0 | 3.0 | 0.00 | 0.55 | 0.55 | 99 | 1007.6 |
| 20260509204103 | 53 | 71 | 1.0 | 3.0 | 0.00 | 0.55 | 0.55 | 99 | 1007.6 |
| 20260509204003 | 53 | 72 | 1.0 | 3.0 | 0.00 | 0.55 | 0.55 | 99 | 1007.6 |
| 20260509203903 | 53 | 73 | 1.0 | 3.0 | 0.00 | 0.55 | 0.55 | 99 | 1007.4 |
| 20260509203803 | 53 | 71 | 1.0 | 3.0 | 0.00 | 0.55 | 0.55 | 99 | 1007.4 |
| 20260509203703 | 53 | 69 | 1.0 | 3.0 | 0.00 | 0.55 | 0.55 | 99 | 1007.3 |
| 20260509203603 | 53 | 68 | 1.0 | 3.0 | 0.00 | 0.55 | 0.55 | 99 | 1007.5 |
| 20260509203503 | 53 | 68 | 1.0 | 3.0 | 0.00 | 0.55 | 0.55 | 99 | 1007.3 |
| 20260509203403 | 53 | 68 | 1.0 | 3.0 | 0.00 | 0.55 | 0.55 | 99 | 1007.3 |
| 20260509203324 | 53 | 69 | 1.0 | 3.0 | 0.00 | 0.55 | 0.55 | 99 | 1007.4 |
| 20260509203203 | 53 | 65 | 1.0 | 3.0 | 0.00 | 0.55 | 0.55 | 99 | 1007.4 |
| 20260509203103 | 53 | 58 | 1.0 | 3.0 | 0.00 | 0.55 | 0.55 | 99 | 1007.4 |
| 20260509203003 | 53 | 57 | 1.0 | 3.0 | 0.00 | 0.55 | 0.55 | 99 | 1007.4 |
| 20260509202924 | 53 | 57 | 1.0 | 3.0 | 0.00 | 0.55 | 0.55 | 99 | 1007.4 |
| 20260509202803 | 53 | 54 | 1.0 | 3.0 | 0.00 | 0.55 | 0.55 | 99 | 1007.2 |
| 20260509202703 | 53 | 56 | 1.0 | 3.0 | 0.00 | 0.55 | 0.55 | 99 | 1007.3 |
| 20260509202603 | 53 | 57 | 1.0 | 3.0 | 0.00 | 0.55 | 0.55 | 99 | 1007.4 |
| 20260509202524 | 53 | 57 | 1.0 | 3.0 | 0.00 | 0.55 | 0.55 | 99 | 1007.4 |
| 20260509202403 | 53 | 63 | 1.0 | 3.0 | 0.00 | 0.55 | 0.55 | 99 | 1007.2 |
| 20260509202306 | 53 | 62 | 1.0 | 3.0 | 0.00 | 0.55 | 0.55 | 99 | 1007.4 |
| 20260509202203 | 53 | 62 | 1.0 | 3.0 | 0.00 | 0.55 | 0.55 | 99 | 1007.3 |
| 20260509202124 | 53 | 63 | 1.0 | 3.0 | 0.00 | 0.55 | 0.55 | 99 | 1007.2 |
| 20260509202003 | 53 | 74 | 2.0 | 4.0 | 0.00 | 0.55 | 0.55 | 99 | 1007.3 |
| 20260509201903 | 53 | 75 | 1.0 | 4.0 | 0.00 | 0.55 | 0.55 | 99 | 1007.2 |
| 20260509201824 | 53 | 75 | 1.0 | 4.0 | 0.00 | 0.55 | 0.55 | 99 | 1007.1 |
| 20260509201703 | 53 | 75 | 1.0 | 4.0 | 0.00 | 0.55 | 0.55 | 99 | 1007.2 |
| 20260509201603 | 53 | 73 | 1.0 | 4.0 | 0.00 | 0.55 | 0.55 | 99 | 1007.2 |
| 20260509201503 | 53 | 77 | 1.0 | 4.0 | 0.00 | 0.55 | 0.55 | 99 | 1007.2 |
| 20260509201403 | 53 | 73 | 1.0 | 4.0 | 0.00 | 0.55 | 0.55 | 99 | 1007.2 |
| 20260509201303 | 53 | 74 | 1.0 | 4.0 | 0.00 | 0.55 | 0.55 | 99 | 1007.3 |
| 20260509201203 | 53 | 74 | 2.0 | 4.0 | 0.00 | 0.55 | 0.55 | 99 | 1007.1 |
| 20260509201103 | 53 | 75 | 1.0 | 4.0 | 0.00 | 0.55 | 0.55 | 99 | 1007.2 |
| 20260509201003 | 53 | 63 | 1.0 | 3.0 | 0.00 | 0.55 | 0.55 | 99 | 1007.1 |
| 20260509200903 | 53 | 64 | 1.0 | 3.0 | 0.01 | 0.55 | 0.55 | 99 | 1007.3 |
| 20260509200803 | 53 | 64 | 1.0 | 3.0 | 0.01 | 0.55 | 0.55 | 99 | 1007.1 |
| 20260509200703 | 54 | 64 | 1.0 | 3.0 | 0.01 | 0.55 | 0.55 | 99 | 1007.3 |
| 20260509200603 | 54 | 64 | 1.0 | 3.0 | 0.01 | 0.55 | 0.55 | 99 | 1007.1 |
| 20260509200503 | 54 | 64 | 1.0 | 3.0 | 0.01 | 0.55 | 0.55 | 99 | 1007.1 |
| 20260509200424 | 54 | 57 | 1.0 | 3.0 | 0.01 | 0.55 | 0.55 | 99 | 1007.1 |
| 20260509200324 | 54 | 56 | 1.0 | 3.0 | 0.01 | 0.55 | 0.55 | 99 | 1007.0 |
| 20260509200203 | 54 | 56 | 1.0 | 3.0 | 0.01 | 0.55 | 0.55 | 99 | 1007.1 |
| 20260509200003 | 54 | 51 | 0.0 | 2.0 | 0.01 | 0.55 | 0.55 | 99 | 1007.0 |
| 20260509195903 | 54 | 51 | 0.0 | 2.0 | 0.02 | 0.55 | 0.55 | 99 | 1007.1 |
| 20260509195824 | 54 | 51 | 0.0 | 2.0 | 0.02 | 0.55 | 0.55 | 99 | 1006.8 |
| 20260509195724 | 54 | 53 | 1.0 | 2.0 | 0.02 | 0.55 | 0.55 | 99 | 1006.9 |
| 20260509195624 | 54 | 53 | 1.0 | 2.0 | 0.02 | 0.55 | 0.55 | 99 | 1006.9 |
| 20260509195503 | 54 | 54 | 1.0 | 2.0 | 0.02 | 0.55 | 0.55 | 99 | 1006.9 |
| 20260509195403 | 54 | 54 | 1.0 | 2.0 | 0.02 | 0.55 | 0.55 | 99 | 1007.2 |
| 20260509195306 | 54 | 54 | 1.0 | 2.0 | 0.02 | 0.55 | 0.55 | 99 | 1007.2 |
| 20260509195203 | 54 | 54 | 1.0 | 2.0 | 0.02 | 0.55 | 0.55 | 99 | 1006.8 |
| 20260509195103 | 54 | 54 | 1.0 | 2.0 | 0.02 | 0.55 | 0.55 | 99 | 1007.1 |
| 20260509195003 | 54 | 54 | 1.0 | 2.0 | 0.02 | 0.55 | 0.55 | 99 | 1007.0 |
| 20260509194903 | 54 | 54 | 1.0 | 2.0 | 0.02 | 0.55 | 0.55 | 99 | 1006.9 |
| 20260509194803 | 54 | 53 | 1.0 | 2.0 | 0.03 | 0.55 | 0.55 | 99 | 1007.1 |
| 20260509194724 | 54 | 54 | 0.0 | 2.0 | 0.03 | 0.55 | 0.55 | 99 | 1007.1 |
| 20260509194603 | 54 | 50 | 0.0 | 2.0 | 0.03 | 0.55 | 0.55 | 99 | 1007.2 |
| 20260509194503 | 54 | 50 | 0.0 | 2.0 | 0.03 | 0.55 | 0.55 | 99 | 1007.0 |
| 20260509194403 | 54 | 47 | 0.0 | 1.0 | 0.03 | 0.55 | 0.55 | 99 | 1007.0 |
| 20260509194303 | 54 | 47 | 0.0 | 1.0 | 0.03 | 0.55 | 0.55 | 99 | 1006.9 |
| 20260509194203 | 54 | 47 | 0.0 | 1.0 | 0.03 | 0.55 | 0.55 | 99 | 1007.0 |
| 20260509194103 | 54 | 47 | 0.0 | 1.0 | 0.03 | 0.55 | 0.55 | 99 | 1006.8 |
| 20260509194003 | 54 | 47 | 0.0 | 1.0 | 0.03 | 0.55 | 0.55 | 99 | 1006.9 |
| 20260509193903 | 54 | 47 | 0.0 | 1.0 | 0.04 | 0.55 | 0.55 | 99 | 1006.9 |
| 20260509193803 | 54 | 47 | 0.0 | 1.0 | 0.04 | 0.55 | 0.55 | 99 | 1006.8 |
| 20260509193703 | 54 | 47 | 0.0 | 1.0 | 0.04 | 0.55 | 0.55 | 99 | 1006.8 |
| 20260509193603 | 54 | 47 | 0.0 | 1.0 | 0.04 | 0.55 | 0.55 | 99 | 1006.6 |
| 20260509193503 | 54 | 47 | 0.0 | 1.0 | 0.04 | 0.55 | 0.55 | 99 | 1006.7 |
| 20260509193403 | 54 | 47 | 0.0 | 1.0 | 0.04 | 0.55 | 0.55 | 99 | 1006.7 |
| 20260509193303 | 54 | 47 | 0.0 | 1.0 | 0.04 | 0.55 | 0.55 | 99 | 1006.7 |
| 20260509193203 | 54 | 47 | 0.0 | 1.0 | 0.04 | 0.55 | 0.55 | 99 | 1006.5 |
| 20260509193124 | 54 | 47 | 0.0 | 1.0 | 0.04 | 0.55 | 0.55 | 99 | 1006.6 |
| 20260509193003 | 54 | 47 | 0.0 | 1.0 | 0.05 | 0.55 | 0.55 | 99 | 1006.8 |
| 20260509192924 | 54 | 47 | 0.0 | 1.0 | 0.05 | 0.55 | 0.55 | 99 | 1006.7 |
| 20260509192803 | 54 | 47 | 0.0 | 1.0 | 0.05 | 0.55 | 0.55 | 99 | 1006.7 |
| 20260509192703 | 54 | 47 | 0.0 | 1.0 | 0.05 | 0.55 | 0.55 | 99 | 1006.7 |
| 20260509192624 | 54 | 47 | 0.0 | 1.0 | 0.05 | 0.55 | 0.55 | 99 | 1006.7 |
| 20260509192503 | 54 | 47 | 0.0 | 1.0 | 0.05 | 0.55 | 0.55 | 99 | 1006.7 |
| 20260509192424 | 54 | 47 | 0.0 | 1.0 | 0.05 | 0.55 | 0.55 | 99 | 1006.7 |
| 20260509192306 | 54 | 47 | 0.0 | 1.0 | 0.05 | 0.55 | 0.55 | 99 | 1006.7 |
| 20260509192203 | 54 | 47 | 0.0 | 1.0 | 0.05 | 0.55 | 0.55 | 99 | 1006.7 |
| 20260509192103 | 54 | 47 | 0.0 | 1.0 | 0.06 | 0.55 | 0.55 | 99 | 1006.6 |
| 20260509192024 | 54 | 47 | 0.0 | 1.0 | 0.06 | 0.55 | 0.55 | 99 | 1006.6 |
| 20260509191903 | 54 | 47 | 0.0 | 1.0 | 0.06 | 0.55 | 0.55 | 99 | 1006.6 |
| 20260509191803 | 54 | 47 | 0.0 | 1.0 | 0.06 | 0.55 | 0.55 | 99 | 1006.6 |
| 20260509191703 | 54 | 0 | 0.0 | 0.0 | 0.07 | 0.55 | 0.55 | 99 | 1006.5 |
| 20260509191603 | 54 | 0 | 0.0 | 0.0 | 0.07 | 0.55 | 0.55 | 99 | 1006.6 |
| 20260509191524 | 54 | 0 | 0.0 | 0.0 | 0.07 | 0.55 | 0.55 | 99 | 1006.7 |
| 20260509191403 | 54 | 57 | 0.0 | 2.0 | 0.08 | 0.55 | 0.55 | 99 | 1006.5 |
| 20260509191303 | 54 | 53 | 0.0 | 2.0 | 0.08 | 0.55 | 0.55 | 99 | 1006.6 |
| 20260509191203 | 54 | 53 | 0.0 | 2.0 | 0.08 | 0.55 | 0.55 | 99 | 1006.6 |
| 20260509191103 | 54 | 53 | 0.0 | 2.0 | 0.09 | 0.55 | 0.55 | 99 | 1006.5 |
| 20260509191003 | 54 | 54 | 0.0 | 2.0 | 0.09 | 0.55 | 0.55 | 99 | 1006.7 |
| 20260509190903 | 54 | 54 | 0.0 | 2.0 | 0.08 | 0.54 | 0.54 | 99 | 1006.4 |
| 20260509190803 | 54 | 54 | 0.0 | 2.0 | 0.08 | 0.54 | 0.54 | 99 | 1006.5 |
| 20260509190703 | 54 | 53 | 1.0 | 2.0 | 0.08 | 0.54 | 0.54 | 99 | 1006.7 |
| 20260509190624 | 54 | 53 | 1.0 | 2.0 | 0.08 | 0.54 | 0.54 | 99 | 1006.7 |
| 20260509190503 | 54 | 53 | 1.0 | 2.0 | 0.09 | 0.54 | 0.54 | 99 | 1006.6 |
| 20260509190403 | 54 | 53 | 1.0 | 2.0 | 0.09 | 0.54 | 0.54 | 99 | 1006.7 |
| 20260509190303 | 54 | 53 | 1.0 | 2.0 | 0.09 | 0.54 | 0.54 | 99 | 1006.6 |
| 20260509190203 | 54 | 53 | 1.0 | 2.0 | 0.09 | 0.54 | 0.54 | 99 | 1006.5 |
| 20260509190004 | 54 | 53 | 1.0 | 2.0 | 0.11 | 0.54 | 0.54 | 99 | 1006.5 |
| 20260509185903 | 54 | 53 | 0.0 | 1.0 | 0.10 | 0.53 | 0.53 | 99 | 1006.7 |
| 20260509185803 | 54 | 53 | 0.0 | 1.0 | 0.10 | 0.53 | 0.53 | 99 | 1006.4 |
| 20260509185703 | 54 | 53 | 0.0 | 1.0 | 0.10 | 0.53 | 0.53 | 99 | 1006.5 |
| 20260509185603 | 54 | 53 | 0.0 | 1.0 | 0.10 | 0.53 | 0.53 | 99 | 1006.5 |
| 20260509185503 | 54 | 52 | 0.0 | 1.0 | 0.12 | 0.53 | 0.53 | 99 | 1006.4 |
| 20260509185403 | 54 | 52 | 0.0 | 1.0 | 0.12 | 0.53 | 0.53 | 99 | 1006.5 |
| 20260509185306 | 54 | 52 | 0.0 | 1.0 | 0.12 | 0.53 | 0.53 | 99 | 1006.4 |
| 20260509185203 | 54 | 52 | 0.0 | 1.0 | 0.12 | 0.53 | 0.53 | 99 | 1006.6 |
| 20260509185103 | 54 | 0 | 0.0 | 0.0 | 0.12 | 0.53 | 0.53 | 99 | 1006.4 |
| 20260509185003 | 54 | 0 | 0.0 | 0.0 | 0.15 | 0.53 | 0.53 | 99 | 1006.5 |
| 20260509184903 | 54 | 0 | 0.0 | 0.0 | 0.15 | 0.53 | 0.53 | 99 | 1006.4 |
| 20260509184803 | 54 | 0 | 0.0 | 0.0 | 0.14 | 0.52 | 0.52 | 99 | 1006.6 |
| 20260509184703 | 54 | 0 | 0.0 | 0.0 | 0.14 | 0.52 | 0.52 | 99 | 1006.4 |
| 20260509184603 | 54 | 0 | 0.0 | 0.0 | 0.14 | 0.52 | 0.52 | 99 | 1006.5 |
| 20260509184503 | 54 | 0 | 0.0 | 0.0 | 0.19 | 0.52 | 0.52 | 99 | 1006.6 |
| 20260509184403 | 54 | 0 | 0.0 | 0.0 | 0.19 | 0.52 | 0.52 | 99 | 1006.4 |
| 20260509184303 | 54 | 0 | 0.0 | 0.0 | 0.19 | 0.52 | 0.52 | 99 | 1006.4 |
| 20260509184203 | 54 | 0 | 0.0 | 0.0 | 0.19 | 0.52 | 0.52 | 99 | 1006.6 |
| 20260509184104 | 54 | 0 | 0.0 | 0.0 | 0.26 | 0.52 | 0.52 | 99 | 1006.6 |
| 20260509184003 | 54 | 0 | 0.0 | 0.0 | 0.30 | 0.52 | 0.52 | 99 | 1006.3 |
| 20260509183903 | 54 | 0 | 0.0 | 0.0 | 0.34 | 0.51 | 0.51 | 99 | 1006.5 |
| 20260509183803 | 54 | 0 | 0.0 | 0.0 | 0.40 | 0.51 | 0.51 | 99 | 1006.6 |
| 20260509183703 | 54 | 0 | 0.0 | 0.0 | 0.42 | 0.51 | 0.51 | 99 | 1006.4 |
| 20260509183603 | 54 | 0 | 0.0 | 0.0 | 0.42 | 0.51 | 0.51 | 99 | 1006.5 |
| 20260509183503 | 54 | 0 | 0.0 | 0.0 | 0.42 | 0.51 | 0.51 | 99 | 1006.4 |
| 20260509183403 | 54 | 0 | 0.0 | 0.0 | 0.42 | 0.51 | 0.51 | 99 | 1006.4 |
| 20260509183303 | 54 | 0 | 0.0 | 0.0 | 0.42 | 0.51 | 0.51 | 99 | 1006.3 |
| 20260509183203 | 54 | 0 | 0.0 | 0.0 | 0.42 | 0.51 | 0.51 | 99 | 1006.4 |
| 20260509183124 | 54 | 0 | 0.0 | 0.0 | 0.42 | 0.51 | 0.51 | 99 | 1006.3 |
| 20260509183024 | 54 | 0 | 0.0 | 0.0 | 0.41 | 0.50 | 0.50 | 99 | 1006.4 |
| 20260509182903 | 54 | 0 | 0.0 | 0.0 | 0.41 | 0.50 | 0.50 | 99 | 1006.3 |
| 20260509182803 | 54 | 0 | 0.0 | 0.0 | 0.41 | 0.50 | 0.50 | 99 | 1006.3 |
| 20260509182703 | 54 | 0 | 0.0 | 0.0 | 0.41 | 0.50 | 0.50 | 99 | 1006.2 |
| 20260509182603 | 54 | 0 | 0.0 | 0.0 | 0.41 | 0.50 | 0.50 | 99 | 1006.2 |
| 20260509182503 | 54 | 0 | 0.0 | 0.0 | 0.41 | 0.50 | 0.50 | 99 | 1006.2 |
| 20260509182403 | 54 | 0 | 0.0 | 0.0 | 0.41 | 0.50 | 0.50 | 99 | 1006.2 |
| 20260509182306 | 54 | 56 | 0.0 | 1.0 | 0.41 | 0.50 | 0.50 | 99 | 1006.3 |
| 20260509182203 | 54 | 57 | 0.0 | 2.0 | 0.41 | 0.50 | 0.50 | 99 | 1006.2 |
| 20260509182103 | 54 | 57 | 0.0 | 2.0 | 0.40 | 0.49 | 0.49 | 99 | 1006.2 |
| 20260509182003 | 54 | 55 | 1.0 | 4.0 | 0.40 | 0.49 | 0.49 | 99 | 1006.1 |
| 20260509181903 | 54 | 55 | 1.0 | 4.0 | 0.40 | 0.49 | 0.49 | 99 | 1006.2 |
| 20260509181803 | 54 | 55 | 1.0 | 4.0 | 0.40 | 0.49 | 0.49 | 99 | 1006.3 |
| 20260509181703 | 54 | 55 | 1.0 | 4.0 | 0.39 | 0.48 | 0.48 | 99 | 1006.3 |
| 20260509181603 | 54 | 55 | 1.0 | 4.0 | 0.39 | 0.48 | 0.48 | 99 | 1006.2 |
| 20260509181503 | 54 | 58 | 1.0 | 4.0 | 0.39 | 0.48 | 0.48 | 99 | 1006.3 |
| 20260509181403 | 54 | 58 | 2.0 | 4.0 | 0.38 | 0.47 | 0.47 | 99 | 1006.2 |
| 20260509181303 | 54 | 58 | 2.0 | 4.0 | 0.38 | 0.47 | 0.47 | 99 | 1006.2 |
| 20260509181203 | 54 | 58 | 2.0 | 4.0 | 0.38 | 0.47 | 0.47 | 99 | 1006.3 |
| 20260509181103 | 54 | 58 | 2.0 | 4.0 | 0.38 | 0.46 | 0.46 | 99 | 1006.2 |
| 20260509181003 | 54 | 73 | 2.0 | 7.0 | 0.39 | 0.46 | 0.46 | 99 | 1006.2 |
| 20260509174103 | 55 | 114 | 5.0 | 15.0 | 0.24 | 0.26 | 0.26 | 98 | 1005.9 |
| 20260509174003 | 56 | 108 | 5.0 | 15.0 | 0.20 | 0.22 | 0.22 | 98 | 1006.0 |
| 20260509173903 | 56 | 115 | 4.0 | 15.0 | 0.15 | 0.17 | 0.17 | 96 | 1006.1 |
| 20260509173804 | 56 | 105 | 4.0 | 15.0 | 0.09 | 0.11 | 0.11 | 93 | 1006.1 |
| 20260509173703 | 57 | 93 | 3.0 | 11.0 | 0.07 | 0.09 | 0.09 | 93 | 1005.8 |
| 20260509173603 | 57 | 39 | 2.0 | 7.0 | 0.07 | 0.09 | 0.09 | 93 | 1005.7 |
| 20260509173524 | 57 | 39 | 2.0 | 7.0 | 0.07 | 0.09 | 0.09 | 93 | 1005.7 |
| 20260509173403 | 57 | 3 | 2.0 | 4.0 | 0.07 | 0.09 | 0.09 | 92 | 1005.3 |
| 20260509173324 | 57 | 3 | 2.0 | 4.0 | 0.07 | 0.09 | 0.09 | 92 | 1005.3 |
| 20260509173203 | 57 | 358 | 2.0 | 4.0 | 0.07 | 0.09 | 0.09 | 92 | 1005.2 |
| 20260509173103 | 57 | 359 | 2.0 | 4.0 | 0.07 | 0.09 | 0.09 | 92 | 1005.3 |
| 20260509173003 | 57 | 359 | 2.0 | 4.0 | 0.07 | 0.09 | 0.09 | 92 | 1004.9 |
| 20260509172903 | 57 | 359 | 2.0 | 4.0 | 0.07 | 0.09 | 0.09 | 92 | 1005.0 |
| 20260509172803 | 57 | 360 | 2.0 | 4.0 | 0.07 | 0.09 | 0.09 | 92 | 1004.9 |
| 20260509172703 | 57 | 360 | 2.0 | 4.0 | 0.07 | 0.09 | 0.09 | 91 | 1004.9 |
| 20260509172603 | 57 | 360 | 2.0 | 4.0 | 0.07 | 0.09 | 0.09 | 91 | 1005.0 |
| 20260509172503 | 57 | 357 | 2.0 | 3.0 | 0.07 | 0.09 | 0.09 | 91 | 1005.0 |
| 20260509172403 | 57 | 357 | 2.0 | 3.0 | 0.07 | 0.09 | 0.09 | 90 | 1004.9 |
| 20260509172306 | 57 | 356 | 2.0 | 3.0 | 0.07 | 0.09 | 0.09 | 90 | 1004.9 |
| 20260509172203 | 57 | 356 | 2.0 | 3.0 | 0.07 | 0.09 | 0.09 | 89 | 1004.9 |
| 20260509172103 | 58 | 355 | 1.0 | 3.0 | 0.07 | 0.09 | 0.09 | 89 | 1004.8 |
| 20260509172003 | 58 | 351 | 1.0 | 4.0 | 0.07 | 0.09 | 0.09 | 88 | 1005.0 |
| 20260509171903 | 58 | 345 | 1.0 | 4.0 | 0.07 | 0.09 | 0.09 | 87 | 1005.0 |
| 20260509171803 | 58 | 340 | 1.0 | 4.0 | 0.07 | 0.09 | 0.09 | 87 | 1005.0 |
| 20260509171703 | 58 | 340 | 1.0 | 4.0 | 0.07 | 0.09 | 0.09 | 87 | 1005.0 |
| 20260509171603 | 58 | 331 | 2.0 | 4.0 | 0.07 | 0.09 | 0.09 | 86 | 1004.9 |
| 20260509171503 | 58 | 321 | 2.0 | 4.0 | 0.07 | 0.09 | 0.09 | 85 | 1005.2 |
| 20260509171403 | 58 | 315 | 2.0 | 4.0 | 0.07 | 0.09 | 0.09 | 85 | 1005.0 |
| 20260509171303 | 59 | 315 | 2.0 | 4.0 | 0.07 | 0.09 | 0.09 | 84 | 1004.9 |
| 20260509171224 | 59 | 310 | 3.0 | 4.0 | 0.07 | 0.09 | 0.09 | 83 | 1004.8 |
| 20260509171103 | 59 | 308 | 3.0 | 4.0 | 0.06 | 0.08 | 0.08 | 82 | 1004.8 |
| 20260509171003 | 60 | 305 | 3.0 | 4.0 | 0.05 | 0.07 | 0.07 | 80 | 1005.0 |
| 20260509170903 | 60 | 301 | 3.0 | 4.0 | 0.03 | 0.05 | 0.05 | 79 | 1005.0 |
| 20260509170803 | 60 | 298 | 3.0 | 4.0 | 0.01 | 0.03 | 0.03 | 78 | 1005.0 |
| 20260509170703 | 61 | 298 | 3.0 | 4.0 | 0.00 | 0.02 | 0.02 | 77 | 1005.0 |
| 20260509170603 | 61 | 297 | 3.0 | 4.0 | 0.00 | 0.02 | 0.02 | 76 | 1004.8 |
| 20260509170503 | 62 | 299 | 3.0 | 4.0 | 0.00 | 0.02 | 0.02 | 75 | 1005.1 |
| 20260509170403 | 62 | 296 | 3.0 | 4.0 | 0.00 | 0.02 | 0.02 | 74 | 1004.9 |
| 20260509170303 | 62 | 294 | 3.0 | 4.0 | 0.00 | 0.02 | 0.02 | 73 | 1005.1 |
| 20260509170203 | 62 | 296 | 3.0 | 4.0 | 0.00 | 0.02 | 0.02 | 72 | 1004.9 |
| 20260509170003 | 62 | 296 | 3.0 | 6.0 | 0.00 | 0.02 | 0.02 | 70 | 1005.0 |
| 20260509165924 | 62 | 296 | 3.0 | 6.0 | 0.00 | 0.02 | 0.02 | 70 | 1005.0 |
| 20260509165824 | 62 | 294 | 3.0 | 6.0 | 0.00 | 0.02 | 0.02 | 71 | 1004.8 |
| 20260509165724 | 62 | 298 | 3.0 | 6.0 | 0.00 | 0.02 | 0.02 | 70 | 1005.0 |
| 20260509165624 | 62 | 298 | 3.0 | 6.0 | 0.00 | 0.02 | 0.02 | 70 | 1004.8 |
| 20260509165503 | 62 | 309 | 2.0 | 6.0 | 0.00 | 0.02 | 0.02 | 71 | 1005.0 |
| 20260509165403 | 62 | 317 | 2.0 | 6.0 | 0.00 | 0.02 | 0.02 | 71 | 1005.0 |
| 20260509165306 | 62 | 322 | 2.0 | 6.0 | 0.00 | 0.02 | 0.02 | 72 | 1004.9 |
| 20260509165203 | 62 | 322 | 2.0 | 6.0 | 0.00 | 0.02 | 0.02 | 72 | 1004.9 |
| 20260509165103 | 62 | 325 | 2.0 | 6.0 | 0.00 | 0.02 | 0.02 | 72 | 1004.9 |
| 20260509165003 | 62 | 339 | 2.0 | 6.0 | 0.00 | 0.02 | 0.02 | 74 | 1004.9 |
| 20260509164903 | 62 | 346 | 2.0 | 4.0 | 0.00 | 0.02 | 0.02 | 76 | 1004.9 |
| 20260509164803 | 62 | 356 | 2.0 | 4.0 | 0.00 | 0.02 | 0.02 | 78 | 1005.1 |
| 20260509164703 | 62 | 1 | 2.0 | 4.0 | 0.00 | 0.02 | 0.02 | 78 | 1005.0 |
| 20260509164603 | 62 | 9 | 2.0 | 4.0 | 0.00 | 0.02 | 0.02 | 81 | 1005.0 |
| 20260509164524 | 62 | 7 | 2.0 | 6.0 | 0.00 | 0.02 | 0.02 | 81 | 1005.0 |
| 20260509164403 | 62 | 2 | 2.0 | 6.0 | 0.00 | 0.02 | 0.02 | 81 | 1004.9 |
| 20260509164303 | 62 | 3 | 3.0 | 6.0 | 0.00 | 0.02 | 0.02 | 81 | 1004.7 |
| 20260509164203 | 62 | 5 | 3.0 | 6.0 | 0.00 | 0.02 | 0.02 | 81 | 1004.8 |
| 20260509164103 | 62 | 8 | 3.0 | 6.0 | 0.00 | 0.02 | 0.02 | 81 | 1004.5 |
| 20260509164003 | 62 | 6 | 3.0 | 6.0 | 0.00 | 0.02 | 0.02 | 80 | 1004.8 |
| 20260509163924 | 62 | 6 | 3.0 | 6.0 | 0.00 | 0.02 | 0.02 | 80 | 1004.6 |
| 20260509163803 | 62 | 6 | 3.0 | 6.0 | 0.00 | 0.02 | 0.02 | 80 | 1004.5 |
| 20260509163703 | 62 | 7 | 3.0 | 6.0 | 0.00 | 0.02 | 0.02 | 80 | 1004.8 |
| 20260509163603 | 62 | 6 | 3.0 | 6.0 | 0.00 | 0.02 | 0.02 | 79 | 1004.6 |
| 20260509163503 | 62 | 8 | 3.0 | 4.0 | 0.00 | 0.02 | 0.02 | 79 | 1004.8 |
| 20260509163403 | 62 | 11 | 3.0 | 6.0 | 0.00 | 0.02 | 0.02 | 79 | 1004.6 |
| 20260509163303 | 63 | 10 | 3.0 | 6.0 | 0.00 | 0.02 | 0.02 | 79 | 1004.6 |
| 20260509163203 | 63 | 11 | 3.0 | 6.0 | 0.00 | 0.02 | 0.02 | 79 | 1004.7 |
| 20260509163103 | 63 | 14 | 3.0 | 6.0 | 0.00 | 0.02 | 0.02 | 79 | 1004.7 |
| 20260509163024 | 63 | 14 | 3.0 | 6.0 | 0.00 | 0.02 | 0.02 | 79 | 1004.7 |
| 20260509162903 | 63 | 16 | 3.0 | 6.0 | 0.00 | 0.02 | 0.02 | 79 | 1004.5 |
| 20260509162824 | 63 | 17 | 3.0 | 6.0 | 0.00 | 0.02 | 0.02 | 78 | 1004.7 |
| 20260509162703 | 63 | 14 | 2.0 | 6.0 | 0.00 | 0.02 | 0.02 | 78 | 1004.7 |
| 20260509162624 | 63 | 14 | 2.0 | 6.0 | 0.00 | 0.02 | 0.02 | 78 | 1004.7 |
| 20260509162524 | 64 | 17 | 2.0 | 6.0 | 0.00 | 0.02 | 0.02 | 77 | 1004.6 |
| 20260509162403 | 64 | 18 | 2.0 | 6.0 | 0.00 | 0.02 | 0.02 | 77 | 1004.7 |
| 20260509162306 | 64 | 19 | 2.0 | 6.0 | 0.00 | 0.02 | 0.02 | 77 | 1004.6 |
| 20260509162203 | 65 | 25 | 2.0 | 4.0 | 0.00 | 0.02 | 0.02 | 77 | 1004.7 |
| 20260509162124 | 65 | 26 | 1.0 | 3.0 | 0.00 | 0.02 | 0.02 | 77 | 1004.5 |
| 20260509162003 | 65 | 27 | 1.0 | 3.0 | 0.00 | 0.02 | 0.02 | 77 | 1004.7 |
| 20260509161924 | 65 | 29 | 2.0 | 3.0 | 0.00 | 0.02 | 0.02 | 76 | 1004.7 |
| 20260509161803 | 65 | 29 | 2.0 | 3.0 | 0.00 | 0.02 | 0.02 | 76 | 1004.6 |
| 20260509161703 | 65 | 35 | 2.0 | 3.0 | 0.00 | 0.02 | 0.02 | 76 | 1004.6 |
| 20260509161603 | 66 | 39 | 2.0 | 3.0 | 0.00 | 0.02 | 0.02 | 75 | 1004.6 |
| 20260509161524 | 66 | 39 | 2.0 | 3.0 | 0.00 | 0.02 | 0.02 | 75 | 1004.6 |
| 20260509161403 | 66 | 37 | 1.0 | 3.0 | 0.00 | 0.02 | 0.02 | 75 | 1004.6 |
| 20260509161324 | 66 | 37 | 1.0 | 3.0 | 0.00 | 0.02 | 0.02 | 75 | 1004.6 |
| 20260509161203 | 66 | 30 | 1.0 | 3.0 | 0.00 | 0.02 | 0.02 | 74 | 1004.5 |
| 20260509161103 | 67 | 23 | 2.0 | 4.0 | 0.00 | 0.02 | 0.02 | 74 | 1004.5 |
| 20260509161003 | 67 | 21 | 2.0 | 4.0 | 0.00 | 0.02 | 0.02 | 73 | 1004.5 |
| 20260509160924 | 67 | 25 | 2.0 | 4.0 | 0.00 | 0.02 | 0.02 | 72 | 1004.6 |
| 20260509160803 | 68 | 22 | 1.0 | 4.0 | 0.00 | 0.02 | 0.02 | 71 | 1004.6 |
| 20260509160703 | 68 | 20 | 1.0 | 4.0 | 0.00 | 0.02 | 0.02 | 71 | 1004.5 |
| 20260509160624 | 68 | 23 | 1.0 | 4.0 | 0.00 | 0.02 | 0.02 | 70 | 1004.5 |
| 20260509160524 | 68 | 21 | 1.0 | 4.0 | 0.00 | 0.02 | 0.02 | 70 | 1004.5 |
| 20260509160403 | 69 | 24 | 1.0 | 4.0 | 0.00 | 0.02 | 0.02 | 70 | 1004.5 |
| 20260509160303 | 69 | 33 | 1.0 | 4.0 | 0.00 | 0.02 | 0.02 | 69 | 1004.6 |
| 20260509160203 | 69 | 68 | 1.0 | 4.0 | 0.00 | 0.02 | 0.02 | 65 | 1004.6 |
| 20260509160003 | 69 | 118 | 1.0 | 4.0 | 0.00 | 0.02 | 0.02 | 66 | 1004.5 |
| 20260509155903 | 69 | 112 | 1.0 | 4.0 | 0.00 | 0.02 | 0.02 | 68 | 1004.4 |
| 20260509155803 | 68 | 108 | 1.0 | 4.0 | 0.00 | 0.02 | 0.02 | 67 | 1004.4 |
| 20260509155703 | 68 | 108 | 1.0 | 4.0 | 0.00 | 0.02 | 0.02 | 67 | 1004.4 |
| 20260509155603 | 68 | 104 | 1.0 | 4.0 | 0.00 | 0.02 | 0.02 | 69 | 1004.5 |
| 20260509155503 | 67 | 102 | 1.0 | 4.0 | 0.00 | 0.02 | 0.02 | 70 | 1004.4 |
| 20260509155403 | 67 | 102 | 1.0 | 4.0 | 0.00 | 0.02 | 0.02 | 70 | 1004.4 |
| 20260509155306 | 67 | 100 | 2.0 | 4.0 | 0.00 | 0.02 | 0.02 | 70 | 1004.6 |
| 20260509155204 | 66 | 98 | 2.0 | 4.0 | 0.00 | 0.02 | 0.02 | 70 | 1004.6 |
| 20260509155103 | 66 | 97 | 2.0 | 6.0 | 0.00 | 0.02 | 0.02 | 69 | 1004.4 |
| 20260509155003 | 66 | 87 | 2.0 | 6.0 | 0.00 | 0.02 | 0.02 | 70 | 1004.6 |
| 20260509154903 | 66 | 87 | 2.0 | 6.0 | 0.00 | 0.02 | 0.02 | 69 | 1004.6 |
| 20260509154803 | 66 | 87 | 2.0 | 6.0 | 0.00 | 0.02 | 0.02 | 72 | 1004.6 |
| 20260509154724 | 66 | 87 | 2.0 | 6.0 | 0.00 | 0.02 | 0.02 | 72 | 1004.6 |
| 20260509154603 | 66 | 84 | 2.0 | 6.0 | 0.00 | 0.02 | 0.02 | 71 | 1004.5 |
| 20260509154503 | 66 | 82 | 2.0 | 6.0 | 0.00 | 0.02 | 0.02 | 71 | 1004.5 |
| 20260509154403 | 66 | 80 | 2.0 | 6.0 | 0.00 | 0.02 | 0.02 | 70 | 1004.4 |
| 20260509154324 | 66 | 80 | 2.0 | 6.0 | 0.00 | 0.02 | 0.02 | 70 | 1004.4 |
| 20260509154224 | 67 | 77 | 2.0 | 6.0 | 0.00 | 0.02 | 0.02 | 71 | 1004.4 |
| 20260509154103 | 67 | 76 | 2.0 | 6.0 | 0.00 | 0.02 | 0.02 | 70 | 1004.6 |
| 20260509154003 | 67 | 69 | 1.0 | 3.0 | 0.00 | 0.02 | 0.02 | 71 | 1004.7 |
| 20260509153903 | 68 | 61 | 1.0 | 3.0 | 0.00 | 0.02 | 0.02 | 70 | 1004.5 |
| 20260509153803 | 68 | 51 | 1.0 | 3.0 | 0.00 | 0.02 | 0.02 | 70 | 1004.5 |
| 20260509153724 | 68 | 52 | 1.0 | 3.0 | 0.00 | 0.02 | 0.02 | 69 | 1004.4 |
| 20260509153603 | 68 | 52 | 1.0 | 3.0 | 0.00 | 0.02 | 0.02 | 69 | 1004.4 |
| 20260509153503 | 68 | 51 | 1.0 | 3.0 | 0.00 | 0.02 | 0.02 | 69 | 1004.4 |
| 20260509153403 | 69 | 50 | 1.0 | 3.0 | 0.00 | 0.02 | 0.02 | 70 | 1004.6 |
| 20260509153303 | 69 | 51 | 1.0 | 3.0 | 0.00 | 0.02 | 0.02 | 69 | 1004.5 |
| 20260509153203 | 69 | 54 | 1.0 | 3.0 | 0.00 | 0.02 | 0.02 | 67 | 1004.5 |
| 20260509153103 | 69 | 55 | 1.0 | 3.0 | 0.00 | 0.02 | 0.02 | 69 | 1004.5 |
| 20260509153024 | 69 | 55 | 1.0 | 3.0 | 0.00 | 0.02 | 0.02 | 69 | 1004.5 |
| 20260509152903 | 70 | 59 | 1.0 | 3.0 | 0.01 | 0.02 | 0.02 | 69 | 1004.4 |
| 20260509152803 | 69 | 72 | 1.0 | 4.0 | 0.01 | 0.02 | 0.02 | 69 | 1004.5 |
| 20260509152703 | 69 | 73 | 1.0 | 4.0 | 0.01 | 0.02 | 0.02 | 68 | 1004.4 |
| 20260509152624 | 69 | 73 | 1.0 | 4.0 | 0.01 | 0.02 | 0.02 | 68 | 1004.4 |
| 20260509152503 | 69 | 74 | 1.0 | 4.0 | 0.01 | 0.02 | 0.02 | 71 | 1004.5 |
| 20260509152403 | 69 | 80 | 1.0 | 4.0 | 0.01 | 0.02 | 0.02 | 72 | 1004.4 |
| 20260509152324 | 68 | 79 | 1.0 | 4.0 | 0.01 | 0.02 | 0.02 | 73 | 1004.4 |
| 20260509152203 | 67 | 77 | 1.0 | 4.0 | 0.01 | 0.02 | 0.02 | 72 | 1004.6 |
| 20260509152103 | 67 | 78 | 1.0 | 4.0 | 0.01 | 0.02 | 0.02 | 71 | 1004.4 |
| 20260509152003 | 67 | 81 | 2.0 | 4.0 | 0.01 | 0.02 | 0.02 | 70 | 1004.7 |
| 20260509151924 | 67 | 82 | 2.0 | 4.0 | 0.01 | 0.02 | 0.02 | 71 | 1004.6 |
| 20260509151803 | 67 | 82 | 1.0 | 4.0 | 0.01 | 0.02 | 0.02 | 70 | 1004.6 |
| 20260509151704 | 67 | 81 | 1.0 | 4.0 | 0.01 | 0.02 | 0.02 | 72 | 1004.6 |
| 20260509151603 | 67 | 83 | 1.0 | 4.0 | 0.01 | 0.02 | 0.02 | 71 | 1004.5 |
| 20260509151503 | 66 | 91 | 2.0 | 4.0 | 0.01 | 0.02 | 0.02 | 72 | 1004.6 |
| 20260509151403 | 66 | 86 | 2.0 | 4.0 | 0.02 | 0.02 | 0.02 | 72 | 1004.5 |
| 20260509151324 | 66 | 89 | 2.0 | 4.0 | 0.02 | 0.02 | 0.02 | 71 | 1004.7 |
| 20260509151203 | 65 | 89 | 2.0 | 4.0 | 0.02 | 0.02 | 0.02 | 76 | 1004.4 |
| 20260509151103 | 65 | 93 | 2.0 | 4.0 | 0.02 | 0.02 | 0.02 | 74 | 1004.7 |
| 20260509151024 | 65 | 93 | 2.0 | 4.0 | 0.02 | 0.02 | 0.02 | 74 | 1004.7 |
| 20260509150903 | 65 | 91 | 2.0 | 4.0 | 0.02 | 0.02 | 0.02 | 77 | 1004.7 |
| 20260509150803 | 65 | 91 | 2.0 | 4.0 | 0.02 | 0.02 | 0.02 | 77 | 1004.7 |
| 20260509150724 | 65 | 94 | 2.0 | 6.0 | 0.02 | 0.02 | 0.02 | 76 | 1004.7 |
| 20260509150603 | 65 | 93 | 2.0 | 6.0 | 0.02 | 0.02 | 0.02 | 75 | 1004.7 |
| 20260509150524 | 65 | 96 | 3.0 | 6.0 | 0.02 | 0.02 | 0.02 | 74 | 1004.8 |
| 20260509150403 | 65 | 92 | 2.0 | 6.0 | 0.02 | 0.02 | 0.02 | 74 | 1004.8 |
| 20260509150324 | 66 | 91 | 2.0 | 6.0 | 0.02 | 0.02 | 0.02 | 75 | 1004.7 |
| 20260509150203 | 66 | 89 | 2.0 | 6.0 | 0.02 | 0.02 | 0.02 | 73 | 1004.7 |
| 20260509150103 | 66 | 88 | 2.0 | 6.0 | 0.02 | 0.02 | 0.02 | 74 | 1004.8 |
| 20260509150024 | 65 | 85 | 2.0 | 6.0 | 0.02 | 0.02 | 0.02 | 75 | 1004.8 |
| 20260509145924 | 65 | 84 | 2.0 | 6.0 | 0.02 | 0.02 | 0.02 | 75 | 1004.8 |
| 20260509145804 | 65 | 84 | 2.0 | 6.0 | 0.02 | 0.02 | 0.02 | 74 | 1004.8 |
| 20260509145703 | 65 | 78 | 2.0 | 4.0 | 0.02 | 0.02 | 0.02 | 75 | 1004.7 |
| 20260509145604 | 65 | 76 | 2.0 | 4.0 | 0.02 | 0.02 | 0.02 | 77 | 1004.6 |
| 20260509145503 | 65 | 70 | 2.0 | 4.0 | 0.02 | 0.02 | 0.02 | 77 | 1004.6 |
| 20260509145403 | 64 | 75 | 2.0 | 4.0 | 0.02 | 0.02 | 0.02 | 77 | 1004.5 |
| 20260509145306 | 64 | 75 | 2.0 | 4.0 | 0.02 | 0.02 | 0.02 | 77 | 1004.5 |
| 20260509145203 | 64 | 76 | 2.0 | 4.0 | 0.02 | 0.02 | 0.02 | 80 | 1004.6 |
| 20260509145104 | 63 | 76 | 2.0 | 4.0 | 0.02 | 0.02 | 0.02 | 82 | 1004.7 |
| 20260509145003 | 63 | 77 | 2.0 | 4.0 | 0.02 | 0.02 | 0.02 | 83 | 1004.7 |
| 20260509144903 | 61 | 79 | 2.0 | 4.0 | 0.02 | 0.02 | 0.02 | 84 | 1004.7 |
| 20260509144803 | 61 | 81 | 2.0 | 4.0 | 0.02 | 0.02 | 0.02 | 84 | 1004.8 |
| 20260509144703 | 61 | 78 | 2.0 | 6.0 | 0.02 | 0.02 | 0.02 | 83 | 1004.8 |
| 20260509144603 | 60 | 77 | 2.0 | 6.0 | 0.02 | 0.02 | 0.02 | 86 | 1004.9 |
| 20260509144503 | 60 | 80 | 2.0 | 6.0 | 0.02 | 0.02 | 0.02 | 86 | 1004.9 |
| 20260509144403 | 60 | 85 | 3.0 | 6.0 | 0.02 | 0.02 | 0.02 | 85 | 1004.7 |
| 20260509144303 | 60 | 80 | 2.0 | 6.0 | 0.02 | 0.02 | 0.02 | 86 | 1004.9 |
| 20260509144203 | 60 | 79 | 3.0 | 6.0 | 0.02 | 0.02 | 0.02 | 86 | 1005.0 |
| 20260509144103 | 59 | 84 | 3.0 | 7.0 | 0.02 | 0.02 | 0.02 | 86 | 1005.1 |
| 20260509144003 | 59 | 95 | 3.0 | 7.0 | 0.02 | 0.02 | 0.02 | 85 | 1005.0 |
| 20260509143903 | 59 | 97 | 3.0 | 7.0 | 0.02 | 0.02 | 0.02 | 85 | 1005.2 |
| 20260509143803 | 59 | 99 | 4.0 | 7.0 | 0.02 | 0.02 | 0.02 | 85 | 1005.1 |
| 20260509143703 | 59 | 112 | 4.0 | 9.0 | 0.02 | 0.02 | 0.02 | 85 | 1005.2 |
| 20260509143603 | 59 | 112 | 4.0 | 9.0 | 0.02 | 0.02 | 0.02 | 85 | 1005.2 |
| 20260509143503 | 59 | 119 | 4.0 | 10.0 | 0.02 | 0.02 | 0.02 | 85 | 1005.3 |
| 20260509143403 | 59 | 116 | 5.0 | 10.0 | 0.02 | 0.02 | 0.02 | 85 | 1005.1 |
| 20260509143303 | 59 | 117 | 5.0 | 11.0 | 0.02 | 0.02 | 0.02 | 85 | 1005.2 |
| 20260509143203 | 59 | 120 | 6.0 | 14.0 | 0.02 | 0.02 | 0.02 | 84 | 1005.2 |
| 20260509143103 | 59 | 125 | 7.0 | 14.0 | 0.02 | 0.02 | 0.02 | 84 | 1005.4 |
| 20260509143003 | 59 | 129 | 7.0 | 15.0 | 0.02 | 0.02 | 0.02 | 82 | 1005.4 |
| 20260509142903 | 59 | 128 | 7.0 | 15.0 | 0.01 | 0.01 | 0.01 | 83 | 1005.3 |
| 20260509142803 | 59 | 131 | 7.0 | 15.0 | 0.01 | 0.01 | 0.01 | 82 | 1005.4 |
| 20260509142704 | 59 | 132 | 7.0 | 15.0 | 0.01 | 0.01 | 0.01 | 83 | 1005.4 |
| 20260509142603 | 59 | 128 | 7.0 | 15.0 | 0.01 | 0.01 | 0.01 | 83 | 1005.4 |
| 20260509142503 | 60 | 124 | 7.0 | 15.0 | 0.01 | 0.01 | 0.01 | 82 | 1005.4 |
| 20260509142403 | 60 | 125 | 6.0 | 15.0 | 0.01 | 0.01 | 0.01 | 82 | 1005.4 |
| 20260509142324 | 60 | 125 | 6.0 | 15.0 | 0.01 | 0.01 | 0.01 | 82 | 1005.4 |
| 20260509142204 | 60 | 129 | 5.0 | 15.0 | 0.01 | 0.01 | 0.01 | 80 | 1005.3 |
| 20260509142103 | 61 | 122 | 5.0 | 15.0 | 0.01 | 0.01 | 0.01 | 79 | 1005.4 |
| 20260509142003 | 61 | 113 | 4.0 | 8.0 | 0.01 | 0.01 | 0.01 | 81 | 1005.4 |
| 20260509141903 | 61 | 111 | 4.0 | 8.0 | 0.01 | 0.01 | 0.01 | 81 | 1005.4 |
| 20260509141803 | 61 | 107 | 4.0 | 10.0 | 0.01 | 0.01 | 0.01 | 81 | 1005.5 |
| 20260509141703 | 61 | 107 | 4.0 | 10.0 | 0.01 | 0.01 | 0.01 | 81 | 1005.5 |
| 20260509141603 | 61 | 110 | 5.0 | 10.0 | 0.01 | 0.01 | 0.01 | 79 | 1005.4 |
| 20260509141503 | 62 | 110 | 5.0 | 10.0 | 0.01 | 0.01 | 0.01 | 79 | 1005.5 |
| 20260509141424 | 62 | 111 | 5.0 | 10.0 | 0.00 | 0.00 | 0.00 | 78 | 1005.4 |
| 20260509141303 | 62 | 117 | 5.0 | 10.0 | 0.00 | 0.00 | 0.00 | 77 | 1005.4 |
| 20260509141203 | 62 | 118 | 5.0 | 10.0 | 0.00 | 0.00 | 0.00 | 77 | 1005.3 |
| 20260509141103 | 62 | 119 | 5.0 | 10.0 | 0.00 | 0.00 | 0.00 | 77 | 1005.2 |
| 20260509141003 | 62 | 124 | 5.0 | 10.0 | 0.00 | 0.00 | 0.00 | 76 | 1005.3 |
| 20260509140903 | 62 | 125 | 5.0 | 10.0 | 0.00 | 0.00 | 0.00 | 75 | 1005.3 |
| 20260509140825 | 62 | 125 | 5.0 | 10.0 | 0.00 | 0.00 | 0.00 | 75 | 1005.3 |
| 20260509140724 | 62 | 127 | 5.0 | 10.0 | 0.00 | 0.00 | 0.00 | 74 | 1005.2 |
| 20260509140603 | 63 | 134 | 4.0 | 7.0 | 0.00 | 0.00 | 0.00 | 75 | 1005.3 |
| 20260509140503 | 63 | 134 | 4.0 | 7.0 | 0.00 | 0.00 | 0.00 | 75 | 1005.3 |
| 20260509140403 | 63 | 133 | 4.0 | 7.0 | 0.00 | 0.00 | 0.00 | 75 | 1005.3 |
| 20260509140303 | 63 | 132 | 4.0 | 7.0 | 0.00 | 0.00 | 0.00 | 75 | 1005.4 |
| 20260509140203 | 63 | 130 | 4.0 | 7.0 | 0.00 | 0.00 | 0.00 | 75 | 1005.3 |
| 20260509140103 | 63 | 126 | 4.0 | 7.0 | 0.00 | 0.00 | 0.00 | 75 | 1005.4 |
| 20260509140003 | 63 | 125 | 4.0 | 7.0 | 0.00 | 0.00 | 0.00 | 73 | 1005.0 |
| 20260509135903 | 63 | 120 | 3.0 | 7.0 | 0.00 | 0.00 | 0.00 | 74 | 1005.2 |
| 20260509135803 | 63 | 121 | 3.0 | 7.0 | 0.00 | 0.00 | 0.00 | 73 | 1005.2 |
| 20260509135703 | 63 | 120 | 4.0 | 9.0 | 0.00 | 0.00 | 0.00 | 73 | 1005.3 |
| 20260509135603 | 63 | 118 | 4.0 | 9.0 | 0.00 | 0.00 | 0.00 | 73 | 1005.2 |
| 20260509135503 | 63 | 115 | 3.0 | 9.0 | 0.00 | 0.00 | 0.00 | 73 | 1005.2 |
| 20260509135403 | 63 | 116 | 4.0 | 9.0 | 0.00 | 0.00 | 0.00 | 73 | 1005.2 |
| 20260509135306 | 63 | 116 | 4.0 | 9.0 | 0.00 | 0.00 | 0.00 | 74 | 1005.3 |
| 20260509135203 | 63 | 116 | 4.0 | 9.0 | 0.00 | 0.00 | 0.00 | 74 | 1005.3 |
| 20260509135103 | 63 | 112 | 4.0 | 9.0 | 0.00 | 0.00 | 0.00 | 73 | 1005.1 |
| 20260509135024 | 63 | 104 | 4.0 | 9.0 | 0.00 | 0.00 | 0.00 | 73 | 1005.2 |
| 20260509134903 | 63 | 104 | 4.0 | 9.0 | 0.00 | 0.00 | 0.00 | 72 | 1005.0 |
| 20260509134803 | 63 | 103 | 5.0 | 9.0 | 0.00 | 0.00 | 0.00 | 72 | 1005.0 |
| 20260509134703 | 63 | 110 | 5.0 | 9.0 | 0.00 | 0.00 | 0.00 | 71 | 1005.1 |
| 20260509134603 | 63 | 102 | 5.0 | 9.0 | 0.00 | 0.00 | 0.00 | 71 | 1005.0 |
| 20260509134503 | 63 | 98 | 5.0 | 9.0 | 0.00 | 0.00 | 0.00 | 71 | 1005.1 |
| 20260509134403 | 64 | 102 | 5.0 | 10.0 | 0.00 | 0.00 | 0.00 | 71 | 1004.9 |
| 20260509134303 | 64 | 104 | 6.0 | 10.0 | 0.00 | 0.00 | 0.00 | 69 | 1005.2 |
| 20260509134203 | 64 | 104 | 6.0 | 10.0 | 0.00 | 0.00 | 0.00 | 69 | 1005.1 |
| 20260509134103 | 64 | 104 | 6.0 | 10.0 | 0.00 | 0.00 | 0.00 | 69 | 1005.1 |
| 20260509134003 | 64 | 107 | 6.0 | 10.0 | 0.00 | 0.00 | 0.00 | 69 | 1005.1 |
| 20260509133903 | 64 | 115 | 6.0 | 10.0 | 0.00 | 0.00 | 0.00 | 68 | 1005.2 |
| 20260509133824 | 64 | 113 | 6.0 | 10.0 | 0.00 | 0.00 | 0.00 | 66 | 1005.0 |
| 20260509133703 | 64 | 117 | 6.0 | 10.0 | 0.00 | 0.00 | 0.00 | 68 | 1005.1 |
| 20260509133603 | 65 | 115 | 6.0 | 10.0 | 0.00 | 0.00 | 0.00 | 66 | 1004.9 |
| 20260509133503 | 65 | 119 | 6.0 | 10.0 | 0.00 | 0.00 | 0.00 | 65 | 1004.9 |
| 20260509133403 | 65 | 121 | 6.0 | 10.0 | 0.00 | 0.00 | 0.00 | 64 | 1004.9 |
| 20260509133303 | 65 | 121 | 5.0 | 9.0 | 0.00 | 0.00 | 0.00 | 65 | 1004.9 |
| 20260509133203 | 65 | 123 | 5.0 | 9.0 | 0.00 | 0.00 | 0.00 | 65 | 1004.7 |
| 20260509133103 | 65 | 125 | 5.0 | 9.0 | 0.00 | 0.00 | 0.00 | 66 | 1004.8 |
| 20260509133004 | 65 | 124 | 5.0 | 9.0 | 0.00 | 0.00 | 0.00 | 64 | 1004.8 |
| 20260509132903 | 65 | 118 | 5.0 | 9.0 | 0.00 | 0.00 | 0.00 | 64 | 1005.1 |
| 20260509132824 | 65 | 118 | 5.0 | 9.0 | 0.00 | 0.00 | 0.00 | 64 | 1005.1 |
| 20260509132724 | 65 | 118 | 5.0 | 9.0 | 0.00 | 0.00 | 0.00 | 64 | 1004.8 |
| 20260509132604 | 65 | 111 | 4.0 | 9.0 | 0.00 | 0.00 | 0.00 | 62 | 1004.8 |
| 20260509132503 | 65 | 111 | 4.0 | 7.0 | 0.00 | 0.00 | 0.00 | 63 | 1004.8 |
| 20260509132403 | 66 | 115 | 4.0 | 9.0 | 0.00 | 0.00 | 0.00 | 62 | 1004.6 |
| 20260509132306 | 66 | 112 | 5.0 | 9.0 | 0.00 | 0.00 | 0.00 | 62 | 1004.9 |
| 20260509132203 | 66 | 106 | 4.0 | 9.0 | 0.00 | 0.00 | 0.00 | 62 | 1004.7 |
| 20260509132124 | 66 | 106 | 4.0 | 9.0 | 0.00 | 0.00 | 0.00 | 62 | 1004.7 |
| 20260509132024 | 66 | 101 | 4.0 | 9.0 | 0.00 | 0.00 | 0.00 | 61 | 1004.7 |
| 20260509131924 | 66 | 101 | 4.0 | 9.0 | 0.00 | 0.00 | 0.00 | 61 | 1004.7 |
| 20260509131824 | 66 | 105 | 4.0 | 9.0 | 0.00 | 0.00 | 0.00 | 59 | 1004.7 |
| 20260509131703 | 67 | 104 | 4.0 | 9.0 | 0.00 | 0.00 | 0.00 | 60 | 1004.9 |
| 20260509131603 | 67 | 102 | 4.0 | 9.0 | 0.00 | 0.00 | 0.00 | 59 | 1004.7 |
| 20260509131524 | 67 | 96 | 4.0 | 9.0 | 0.00 | 0.00 | 0.00 | 58 | 1004.8 |
| 20260509131402 | 67 | 100 | 4.0 | 11.0 | 0.00 | 0.00 | 0.00 | 58 | 1004.6 |
| 20260509131302 | 67 | 104 | 4.0 | 13.0 | 0.00 | 0.01 | 0.00 | 57 | 1004.8 |
| 20260509131203 | 67 | 102 | 4.0 | 13.0 | 0.00 | 0.01 | 0.00 | 59 | 1004.7 |
| 20260509131102 | 67 | 105 | 5.0 | 13.0 | 0.00 | 0.01 | 0.00 | 58 | 1004.7 |
| 20260509131024 | 67 | 105 | 5.0 | 13.0 | 0.00 | 0.01 | 0.00 | 58 | 1004.7 |
| 20260509130903 | 67 | 104 | 6.0 | 13.0 | 0.00 | 0.01 | 0.00 | 57 | 1004.6 |
| 20260509130803 | 67 | 101 | 6.0 | 13.0 | 0.00 | 0.01 | 0.00 | 56 | 1004.6 |
| 20260509130702 | 67 | 102 | 7.0 | 13.0 | 0.00 | 0.01 | 0.00 | 56 | 1004.5 |
| 20260509130602 | 67 | 100 | 7.0 | 13.0 | 0.00 | 0.01 | 0.00 | 55 | 1004.3 |
| 20260509130503 | 67 | 100 | 7.0 | 13.0 | 0.00 | 0.01 | 0.00 | 55 | 1004.3 |
| 20260509130402 | 67 | 105 | 7.0 | 13.0 | 0.00 | 0.01 | 0.00 | 55 | 1004.3 |
| 20260509130303 | 67 | 103 | 8.0 | 13.0 | 0.00 | 0.01 | 0.00 | 55 | 1004.4 |
| 20260509130202 | 68 | 99 | 7.0 | 13.0 | 0.00 | 0.01 | 0.00 | 55 | 1004.3 |
| 20260509130003 | 68 | 98 | 7.0 | 11.0 | 0.00 | 0.01 | 0.00 | 54 | 1004.5 |
| 20260509125903 | 68 | 98 | 6.0 | 11.0 | 0.00 | 0.01 | 0.00 | 54 | 1004.4 |
| 20260509125803 | 68 | 98 | 5.0 | 11.0 | 0.00 | 0.01 | 0.00 | 53 | 1004.5 |
| 20260509125703 | 68 | 97 | 5.0 | 11.0 | 0.00 | 0.01 | 0.00 | 55 | 1004.4 |
| 20260509125602 | 68 | 94 | 5.0 | 11.0 | 0.00 | 0.01 | 0.00 | 55 | 1004.2 |
| 20260509125503 | 69 | 97 | 5.0 | 11.0 | 0.00 | 0.01 | 0.00 | 53 | 1004.3 |
| 20260509125424 | 69 | 97 | 5.0 | 11.0 | 0.00 | 0.01 | 0.00 | 53 | 1004.3 |
| 20260509125307 | 69 | 92 | 4.0 | 11.0 | 0.00 | 0.01 | 0.00 | 56 | 1004.2 |
| 20260509125203 | 69 | 88 | 4.0 | 9.0 | 0.00 | 0.01 | 0.00 | 55 | 1004.2 |
| 20260509125103 | 69 | 89 | 4.0 | 9.0 | 0.00 | 0.01 | 0.00 | 54 | 1004.5 |
| 20260509125024 | 69 | 89 | 4.0 | 9.0 | 0.00 | 0.01 | 0.00 | 54 | 1004.5 |
| 20260509124903 | 69 | 88 | 4.0 | 9.0 | 0.00 | 0.01 | 0.00 | 53 | 1004.5 |
| 20260509124802 | 69 | 89 | 4.0 | 9.0 | 0.00 | 0.01 | 0.00 | 53 | 1004.2 |
| 20260509124703 | 69 | 92 | 5.0 | 9.0 | 0.00 | 0.01 | 0.00 | 52 | 1004.3 |
| 20260509124603 | 70 | 95 | 4.0 | 9.0 | 0.00 | 0.01 | 0.00 | 52 | 1004.3 |
| 20260509124503 | 70 | 98 | 4.0 | 9.0 | 0.00 | 0.01 | 0.00 | 53 | 1004.2 |
| 20260509124403 | 70 | 98 | 4.0 | 9.0 | 0.00 | 0.01 | 0.00 | 53 | 1004.4 |
| 20260509124303 | 70 | 100 | 3.0 | 9.0 | 0.00 | 0.01 | 0.00 | 54 | 1004.1 |
| 20260509124203 | 70 | 100 | 3.0 | 9.0 | 0.00 | 0.01 | 0.00 | 54 | 1004.3 |
| 20260509124102 | 71 | 99 | 3.0 | 9.0 | 0.00 | 0.01 | 0.00 | 53 | 1004.3 |
| 20260509124003 | 71 | 99 | 3.0 | 9.0 | 0.00 | 0.01 | 0.00 | 52 | 1004.3 |
| 20260509123903 | 71 | 104 | 3.0 | 8.0 | 0.00 | 0.01 | 0.00 | 52 | 1004.3 |
| 20260509123803 | 71 | 108 | 3.0 | 8.0 | 0.00 | 0.01 | 0.00 | 53 | 1004.3 |
| 20260509123703 | 71 | 110 | 4.0 | 9.0 | 0.00 | 0.01 | 0.00 | 51 | 1004.3 |
| 20260509123603 | 71 | 109 | 4.0 | 9.0 | 0.00 | 0.01 | 0.00 | 51 | 1004.2 |
| 20260509123503 | 71 | 110 | 4.0 | 9.0 | 0.00 | 0.01 | 0.00 | 54 | 1004.5 |
| 20260509123403 | 71 | 112 | 5.0 | 9.0 | 0.00 | 0.01 | 0.00 | 51 | 1004.4 |
| 20260509123303 | 71 | 112 | 5.0 | 9.0 | 0.00 | 0.01 | 0.00 | 51 | 1004.4 |
| 20260509123203 | 71 | 116 | 5.0 | 9.0 | 0.00 | 0.01 | 0.00 | 51 | 1004.6 |
| 20260509123103 | 71 | 121 | 5.0 | 9.0 | 0.00 | 0.01 | 0.00 | 54 | 1004.4 |
| 20260509123003 | 71 | 128 | 5.0 | 9.0 | 0.00 | 0.01 | 0.00 | 55 | 1004.3 |
| 20260509122902 | 71 | 126 | 5.0 | 9.0 | 0.00 | 0.01 | 0.00 | 55 | 1004.4 |
| 20260509122803 | 71 | 122 | 5.0 | 9.0 | 0.00 | 0.01 | 0.00 | 53 | 1004.3 |
| 20260509122702 | 71 | 121 | 5.0 | 9.0 | 0.00 | 0.01 | 0.00 | 53 | 1004.5 |
| 20260509122624 | 70 | 121 | 5.0 | 9.0 | 0.00 | 0.01 | 0.00 | 56 | 1004.5 |
| 20260509122524 | 70 | 119 | 5.0 | 9.0 | 0.00 | 0.01 | 0.00 | 53 | 1004.4 |
| 20260509122403 | 70 | 117 | 4.0 | 9.0 | 0.00 | 0.01 | 0.00 | 53 | 1004.4 |
| 20260509122305 | 70 | 116 | 4.0 | 9.0 | 0.00 | 0.01 | 0.00 | 54 | 1004.5 |
| 20260509122224 | 71 | 111 | 4.0 | 9.0 | 0.00 | 0.01 | 0.00 | 52 | 1004.6 |
| 20260509122103 | 71 | 102 | 4.0 | 9.0 | 0.00 | 0.01 | 0.00 | 51 | 1004.4 |
| 20260509122003 | 71 | 92 | 3.0 | 8.0 | 0.00 | 0.01 | 0.00 | 52 | 1004.7 |
| 20260509121903 | 72 | 97 | 3.0 | 9.0 | 0.00 | 0.01 | 0.00 | 51 | 1004.4 |
| 20260509121803 | 73 | 97 | 3.0 | 9.0 | 0.00 | 0.01 | 0.00 | 50 | 1004.5 |
| 20260509121703 | 74 | 92 | 3.0 | 9.0 | 0.00 | 0.01 | 0.00 | 50 | 1004.5 |
| 20260509121603 | 74 | 86 | 3.0 | 9.0 | 0.00 | 0.01 | 0.00 | 47 | 1004.5 |
| 20260509121503 | 74 | 90 | 3.0 | 9.0 | 0.00 | 0.01 | 0.00 | 49 | 1004.5 |
| 20260509121424 | 74 | 90 | 3.0 | 9.0 | 0.00 | 0.01 | 0.00 | 49 | 1004.5 |
| 20260509121303 | 73 | 84 | 3.0 | 9.0 | 0.00 | 0.01 | 0.00 | 49 | 1004.5 |
| 20260509121203 | 72 | 78 | 3.0 | 9.0 | 0.00 | 0.01 | 0.00 | 47 | 1004.6 |
| 20260509121103 | 72 | 75 | 4.0 | 11.0 | 0.00 | 0.01 | 0.00 | 53 | 1004.6 |
| 20260509121024 | 72 | 75 | 4.0 | 11.0 | 0.00 | 0.01 | 0.00 | 53 | 1004.6 |
| 20260509120924 | 71 | 75 | 4.0 | 11.0 | 0.00 | 0.01 | 0.00 | 52 | 1004.6 |
| 20260509120803 | 71 | 67 | 4.0 | 11.0 | 0.00 | 0.01 | 0.00 | 53 | 1004.6 |
| 20260509120703 | 71 | 66 | 4.0 | 11.0 | 0.00 | 0.01 | 0.00 | 53 | 1004.4 |
| 20260509120602 | 72 | 65 | 4.0 | 11.0 | 0.00 | 0.01 | 0.00 | 53 | 1004.6 |
| 20260509120524 | 72 | 65 | 4.0 | 11.0 | 0.00 | 0.01 | 0.00 | 52 | 1004.5 |
| 20260509120403 | 72 | 61 | 4.0 | 11.0 | 0.00 | 0.01 | 0.00 | 51 | 1004.6 |
| 20260509120324 | 72 | 61 | 4.0 | 11.0 | 0.00 | 0.01 | 0.00 | 51 | 1004.5 |
| 20260509120203 | 72 | 60 | 3.0 | 11.0 | 0.00 | 0.01 | 0.00 | 51 | 1004.6 |
| 20260509120003 | 72 | 60 | 2.0 | 10.0 | 0.00 | 0.01 | 0.00 | 52 | 1004.7 |
| 20260509115903 | 72 | 60 | 3.0 | 10.0 | 0.00 | 0.01 | 0.00 | 50 | 1004.7 |
| 20260509115803 | 73 | 60 | 3.0 | 8.0 | 0.00 | 0.01 | 0.00 | 52 | 1004.5 |
| 20260509115703 | 74 | 59 | 3.0 | 8.0 | 0.00 | 0.01 | 0.00 | 51 | 1004.7 |
| 20260509115603 | 74 | 59 | 3.0 | 8.0 | 0.00 | 0.01 | 0.00 | 50 | 1004.7 |
| 20260509115503 | 74 | 59 | 3.0 | 8.0 | 0.00 | 0.01 | 0.00 | 48 | 1004.6 |
| 20260509115424 | 74 | 59 | 3.0 | 8.0 | 0.00 | 0.01 | 0.00 | 48 | 1004.6 |
| 20260509115324 | 72 | 58 | 3.0 | 8.0 | 0.00 | 0.01 | 0.00 | 53 | 1004.7 |
| 20260509115203 | 72 | 58 | 3.0 | 8.0 | 0.00 | 0.01 | 0.00 | 51 | 1004.6 |
| 20260509115103 | 71 | 58 | 4.0 | 8.0 | 0.00 | 0.01 | 0.00 | 53 | 1004.5 |
| 20260509115003 | 70 | 58 | 4.0 | 8.0 | 0.00 | 0.01 | 0.00 | 56 | 1004.8 |
| 20260509114903 | 69 | 58 | 4.0 | 8.0 | 0.00 | 0.01 | 0.00 | 53 | 1004.7 |
| 20260509114803 | 69 | 58 | 4.0 | 8.0 | 0.00 | 0.01 | 0.00 | 52 | 1004.7 |
| 20260509114703 | 69 | 58 | 3.0 | 8.0 | 0.00 | 0.01 | 0.00 | 54 | 1004.9 |
| 20260509114604 | 69 | 58 | 3.0 | 8.0 | 0.00 | 0.01 | 0.00 | 54 | 1004.9 |
| 20260509114503 | 69 | 57 | 3.0 | 8.0 | 0.00 | 0.01 | 0.00 | 54 | 1004.9 |
| 20260509114403 | 69 | 57 | 3.0 | 8.0 | 0.00 | 0.01 | 0.00 | 55 | 1004.8 |
| 20260509114303 | 69 | 57 | 3.0 | 8.0 | 0.00 | 0.01 | 0.00 | 55 | 1005.1 |
| 20260509114203 | 69 | 57 | 3.0 | 8.0 | 0.00 | 0.01 | 0.00 | 52 | 1004.9 |
| 20260509114103 | 69 | 57 | 3.0 | 8.0 | 0.00 | 0.01 | 0.00 | 52 | 1004.9 |
| 20260509114024 | 69 | 57 | 2.0 | 7.0 | 0.00 | 0.01 | 0.00 | 55 | 1004.9 |
| 20260509113903 | 69 | 56 | 2.0 | 7.0 | 0.00 | 0.01 | 0.00 | 53 | 1004.9 |
| 20260509113803 | 69 | 56 | 2.0 | 7.0 | 0.00 | 0.01 | 0.00 | 55 | 1004.9 |
| 20260509113703 | 69 | 56 | 2.0 | 7.0 | 0.00 | 0.01 | 0.00 | 52 | 1005.1 |
| 20260509113624 | 70 | 56 | 2.0 | 7.0 | 0.00 | 0.01 | 0.00 | 53 | 1004.8 |
| 20260509113503 | 70 | 56 | 2.0 | 7.0 | 0.00 | 0.01 | 0.00 | 53 | 1004.9 |
| 20260509113402 | 70 | 56 | 2.0 | 10.0 | 0.00 | 0.01 | 0.00 | 53 | 1005.0 |
| 20260509113302 | 70 | 56 | 3.0 | 10.0 | 0.00 | 0.01 | 0.00 | 53 | 1005.0 |
| 20260509113202 | 70 | 56 | 2.0 | 10.0 | 0.00 | 0.01 | 0.00 | 51 | 1004.9 |
| 20260509113102 | 70 | 56 | 2.0 | 10.0 | 0.00 | 0.01 | 0.00 | 52 | 1005.0 |
| 20260509113003 | 70 | 56 | 3.0 | 10.0 | 0.00 | 0.01 | 0.00 | 53 | 1004.9 |
| 20260509112903 | 70 | 56 | 3.0 | 10.0 | 0.00 | 0.01 | 0.00 | 51 | 1004.9 |
| 20260509112803 | 70 | 56 | 3.0 | 10.0 | 0.00 | 0.01 | 0.00 | 51 | 1004.9 |
| 20260509112703 | 70 | 56 | 3.0 | 10.0 | 0.00 | 0.01 | 0.00 | 52 | 1005.0 |
| 20260509112603 | 71 | 55 | 3.0 | 10.0 | 0.00 | 0.01 | 0.00 | 53 | 1005.0 |
| 20260509112503 | 71 | 55 | 3.0 | 10.0 | 0.00 | 0.01 | 0.00 | 53 | 1005.0 |
| 20260509112424 | 71 | 55 | 3.0 | 10.0 | 0.00 | 0.01 | 0.00 | 52 | 1005.1 |
| 20260509112306 | 71 | 55 | 3.0 | 7.0 | 0.00 | 0.01 | 0.00 | 53 | 1005.0 |
| 20260509112203 | 70 | 55 | 2.0 | 6.0 | 0.00 | 0.01 | 0.00 | 55 | 1005.0 |
| 20260509112103 | 70 | 55 | 3.0 | 6.0 | 0.00 | 0.01 | 0.00 | 56 | 1005.0 |
| 20260509112003 | 69 | 55 | 2.0 | 6.0 | 0.00 | 0.01 | 0.00 | 56 | 1005.0 |
| 20260509111903 | 69 | 55 | 3.0 | 6.0 | 0.00 | 0.01 | 0.00 | 55 | 1005.0 |
| 20260509111824 | 69 | 55 | 2.0 | 6.0 | 0.00 | 0.01 | 0.00 | 57 | 1005.0 |
| 20260509111724 | 69 | 55 | 2.0 | 6.0 | 0.00 | 0.01 | 0.00 | 57 | 1005.0 |
| 20260509111624 | 69 | 55 | 2.0 | 6.0 | 0.00 | 0.01 | 0.00 | 57 | 1005.0 |
| 20260509111503 | 70 | 55 | 2.0 | 6.0 | 0.00 | 0.01 | 0.00 | 55 | 1005.0 |
| 20260509111403 | 70 | 55 | 2.0 | 6.0 | 0.00 | 0.01 | 0.00 | 55 | 1005.0 |
| 20260509111303 | 71 | 55 | 2.0 | 6.0 | 0.00 | 0.01 | 0.00 | 58 | 1005.0 |
| 20260509111203 | 72 | 55 | 2.0 | 6.0 | 0.00 | 0.01 | 0.00 | 54 | 1005.1 |
| 20260509111103 | 72 | 55 | 2.0 | 6.0 | 0.00 | 0.01 | 0.00 | 57 | 1005.1 |
| 20260509111024 | 72 | 55 | 2.0 | 6.0 | 0.00 | 0.01 | 0.00 | 57 | 1005.1 |
| 20260509110903 | 72 | 55 | 2.0 | 6.0 | 0.00 | 0.01 | 0.00 | 56 | 1005.1 |
| 20260509110803 | 72 | 55 | 2.0 | 6.0 | 0.00 | 0.01 | 0.00 | 55 | 1005.2 |
| 20260509110703 | 72 | 55 | 2.0 | 6.0 | 0.00 | 0.01 | 0.00 | 56 | 1005.1 |
| 20260509110603 | 72 | 55 | 2.0 | 6.0 | 0.00 | 0.01 | 0.00 | 51 | 1005.2 |
| 20260509110524 | 72 | 55 | 2.0 | 6.0 | 0.00 | 0.01 | 0.00 | 55 | 1005.0 |
| 20260509110403 | 71 | 55 | 2.0 | 6.0 | 0.00 | 0.01 | 0.00 | 53 | 1005.2 |
| 20260509110303 | 71 | 55 | 2.0 | 6.0 | 0.00 | 0.01 | 0.00 | 56 | 1005.2 |
| 20260509110203 | 71 | 55 | 2.0 | 6.0 | 0.00 | 0.01 | 0.00 | 57 | 1005.1 |
| 20260509110003 | 71 | 55 | 2.0 | 6.0 | 0.00 | 0.01 | 0.00 | 57 | 1005.2 |
| 20260509105924 | 71 | 55 | 2.0 | 6.0 | 0.00 | 0.01 | 0.00 | 57 | 1005.2 |
| 20260509105803 | 69 | 55 | 1.0 | 6.0 | 0.00 | 0.01 | 0.00 | 62 | 1005.3 |
| 20260509105724 | 69 | 55 | 2.0 | 7.0 | 0.00 | 0.01 | 0.00 | 58 | 1005.3 |
| 20260509105603 | 69 | 55 | 2.0 | 7.0 | 0.00 | 0.01 | 0.00 | 58 | 1005.1 |
| 20260509105503 | 70 | 55 | 2.0 | 7.0 | 0.00 | 0.01 | 0.00 | 57 | 1005.3 |
| 20260509105403 | 71 | 55 | 2.0 | 7.0 | 0.00 | 0.01 | 0.00 | 54 | 1005.4 |
| 20260509105306 | 71 | 56 | 2.0 | 7.0 | 0.00 | 0.01 | 0.00 | 55 | 1005.4 |
| 20260509105203 | 71 | 56 | 1.0 | 7.0 | 0.00 | 0.01 | 0.00 | 53 | 1005.3 |
| 20260509105103 | 72 | 56 | 2.0 | 7.0 | 0.00 | 0.01 | 0.00 | 53 | 1005.5 |
| 20260509105024 | 72 | 56 | 2.0 | 7.0 | 0.00 | 0.01 | 0.00 | 53 | 1005.5 |
| 20260509104903 | 72 | 56 | 2.0 | 8.0 | 0.00 | 0.01 | 0.00 | 54 | 1005.4 |
| 20260509104803 | 72 | 56 | 3.0 | 8.0 | 0.00 | 0.01 | 0.00 | 56 | 1005.3 |
| 20260509104703 | 72 | 56 | 3.0 | 8.0 | 0.00 | 0.01 | 0.00 | 53 | 1005.4 |
| 20260509104624 | 73 | 56 | 3.0 | 8.0 | 0.00 | 0.01 | 0.00 | 53 | 1005.3 |
| 20260509104503 | 73 | 56 | 3.0 | 8.0 | 0.00 | 0.01 | 0.00 | 56 | 1005.3 |
| 20260509104403 | 72 | 56 | 3.0 | 8.0 | 0.00 | 0.01 | 0.00 | 58 | 1005.6 |
| 20260509104303 | 71 | 56 | 3.0 | 8.0 | 0.00 | 0.01 | 0.00 | 59 | 1005.4 |
| 20260509104203 | 71 | 56 | 3.0 | 8.0 | 0.00 | 0.01 | 0.00 | 58 | 1005.5 |
| 20260509104108 | 71 | 56 | 3.0 | 8.0 | 0.00 | 0.01 | 0.00 | 57 | 1005.5 |
| 20260509104003 | 71 | 56 | 3.0 | 8.0 | 0.00 | 0.01 | 0.00 | 55 | 1005.4 |
| 20260509103903 | 72 | 55 | 2.0 | 8.0 | 0.00 | 0.01 | 0.00 | 57 | 1005.5 |
| 20260509103803 | 72 | 55 | 2.0 | 8.0 | 0.00 | 0.01 | 0.00 | 52 | 1005.4 |
| 20260509103703 | 72 | 55 | 1.0 | 4.0 | 0.00 | 0.01 | 0.00 | 54 | 1005.5 |
| 20260509103603 | 71 | 55 | 1.0 | 4.0 | 0.00 | 0.01 | 0.00 | 56 | 1005.4 |
| 20260509103524 | 71 | 55 | 1.0 | 4.0 | 0.00 | 0.01 | 0.00 | 56 | 1005.4 |
| 20260509103403 | 70 | 55 | 1.0 | 4.0 | 0.00 | 0.01 | 0.00 | 59 | 1005.6 |
| 20260509103303 | 69 | 55 | 0.0 | 3.0 | 0.00 | 0.01 | 0.00 | 59 | 1005.7 |
| 20260509103203 | 69 | 55 | 1.0 | 3.0 | 0.00 | 0.01 | 0.00 | 61 | 1005.5 |
| 20260509103124 | 69 | 55 | 1.0 | 3.0 | 0.00 | 0.01 | 0.00 | 61 | 1005.5 |
| 20260509103003 | 69 | 55 | 1.0 | 3.0 | 0.00 | 0.01 | 0.00 | 59 | 1005.5 |
| 20260509102924 | 69 | 55 | 1.0 | 3.0 | 0.00 | 0.01 | 0.00 | 59 | 1005.5 |
| 20260509102803 | 69 | 55 | 1.0 | 3.0 | 0.00 | 0.01 | 0.00 | 58 | 1005.7 |
| 20260509102724 | 69 | 55 | 1.0 | 3.0 | 0.00 | 0.01 | 0.00 | 57 | 1005.7 |
| 20260509102603 | 69 | 55 | 1.0 | 3.0 | 0.00 | 0.01 | 0.00 | 54 | 1005.6 |
| 20260509102524 | 69 | 55 | 1.0 | 3.0 | 0.00 | 0.01 | 0.00 | 58 | 1005.5 |
| 20260509102403 | 70 | 55 | 2.0 | 3.0 | 0.00 | 0.01 | 0.00 | 58 | 1005.7 |